GFSGL_con_3kmhel_024.txt.gz
Helicity
111 74 105 123 97 86 91 101 117 107 93 88 88 92 94 106 123 117 63 67 86 98 93 92 115 106 103 92 100 112 119 125 133 109 81 70 72 71 76 79 72 56 66
0 105 115 116 100 90 107 104 103 92 93 92 98 100 103 123 116 49 104 148 120 92 109 113 106 101 85 82 101 112 130 137 152 86 73 80 91 70 73 75 64 66 61
118 90 123 102 91 97 96 94 106 112 111 103 112 102 124 138 109 91 132 144 131 124 116 106 85 86 84 99 108 122 148 137 106 115 100 90 84 70 68 69 81 71 49
97 131 114 99 100 93 99 119 136 132 121 123 111 136 152 123 111 112 115 103 106 100 88 73 85 87 100 108 113 115 130 101 96 110 106 90 76 69 62 65 71 57 40
140 121 107 111 100 109 126 128 136 129 125 117 130 145 144 140 136 119 105 86 78 67 70 81 84 126 92 89 107 102 84 80 102 102 94 92 82 63 47 35 41 43 36
137 109 119 119 114 118 125 132 130 117 110 138 135 157 133 156 171 132 83 63 57 65 77 72 80 92 99 72 61 59 51 70 69 83 93 89 56 45 40 44 28 26 45
123 122 121 125 123 116 124 126 124 128 134 134 137 139 127 158 139 110 71 39 63 74 68 70 77 82 73 75 71 34 36 46 91 88 77 66 50 14 9 21 25 19 19
125 121 129 128 122 121 123 117 127 128 135 123 148 129 124 164 128 97 51 46 61 63 65 69 68 68 81 86 52 34 35 44 57 70 71 43 10 -28 -19 3 8 18 27
131 130 119 125 121 116 117 126 132 139 129 133 141 131 118 135 126 85 48 55 60 52 63 64 81 57 80 41 43 30 25 35 59 60 33 20 19 15 19 4 7 -6 6
136 117 119 112 111 120 123 138 137 130 125 129 135 131 161 122 136 85 57 58 55 53 55 67 83 88 45 30 43 35 31 30 37 38 24 13 18 22 57 54 21 -1 -12
102 102 95 108 119 120 126 131 131 114 136 147 137 127 124 112 110 94 71 53 54 59 60 60 65 69 33 24 31 35 32 19 41 44 26 14 5 -2 -2 -2 14 4 -6
76 84 93 111 126 125 117 125 136 117 132 138 141 114 102 102 93 90 69 54 55 60 55 56 55 39 25 25 34 30 2 31 47 47 21 9 -4 3 11 24 25 7 6
71 71 90 104 99 116 115 120 118 121 131 118 105 87 72 99 76 95 63 49 45 62 56 49 40 39 35 39 72 33 8 23 32 44 16 3 -4 23 43 40 30 42 33
56 69 89 98 122 108 119 110 107 123 123 104 89 78 68 74 74 67 62 52 62 54 65 51 59 64 58 66 55 54 36 15 19 37 21 -1 -11 -1 19 28 57 56 47
66 84 98 105 94 97 111 110 100 103 111 93 93 86 80 77 75 86 66 53 55 69 52 53 57 60 58 66 62 56 44 14 -5 13 26 2 -17 8 28 39 47 70 43
80 97 104 97 101 113 105 94 119 96 123 90 75 95 76 77 74 71 61 42 56 64 42 39 47 55 57 62 65 56 47 24 -2 -16 -4 12 -6 -13 25 37 40 38 33
68 77 88 98 108 110 99 95 87 112 111 106 99 92 86 56 68 60 53 45 54 65 43 34 45 50 56 62 70 67 55 40 20 -9 -22 -10 -14 2 4 22 31 34 32
62 89 83 95 119 112 104 93 86 94 110 83 95 87 96 86 56 65 60 56 51 77 56 37 38 46 51 60 70 77 72 51 22 0 -21 -19 -9 -10 1 7 13 27 35
87 89 107 103 107 113 111 102 99 106 127 70 63 121 100 85 76 55 50 82 51 48 47 44 48 46 50 59 74 84 82 72 52 9 -8 -22 -20 -11 -7 1 14 23 34
89 118 100 87 95 93 96 91 98 101 110 81 72 61 68 128 99 77 84 82 68 60 51 47 50 52 53 57 67 78 85 83 75 46 11 -7 -19 -22 -9 0 5 17 27
120 109 107 91 84 86 87 80 78 91 105 84 69 72 66 68 91 85 85 89 96 66 67 62 61 66 66 63 62 64 74 85 86 74 36 3 -4 -19 -15 -9 6 13 22
145 131 122 121 109 95 86 78 81 81 90 75 68 73 94 101 80 84 86 92 99 91 75 77 75 75 77 73 69 66 68 78 84 86 68 30 -2 -9 -13 -14 -6 12 21
140 136 126 120 128 108 100 89 79 72 81 99 87 81 94 119 120 95 94 101 107 103 103 96 97 88 89 92 84 76 67 71 83 91 80 60 21 1 -7 -11 -8 0 16
123 129 128 136 119 103 102 94 77 61 63 69 90 104 110 123 133 132 146 142 136 139 150 140 113 101 103 106 96 87 77 80 85 91 86 71 54 26 4 -2 -9 1 2
139 127 127 123 101 95 92 80 80 63 55 53 66 83 89 100 122 135 125 136 169 168 166 189 168 110 114 125 109 96 93 107 86 87 85 74 65 50 23 9 5 -6 5
145 102 97 87 80 87 84 80 77 69 54 40 53 58 68 76 87 99 111 120 128 149 186 191 199 149 125 122 115 115 121 117 100 90 76 68 65 61 48 29 18 4 3

GFSGL_con_3kmhel_027.txt.gz
Helicity
377 286 243 -90 96 109 101 98 99 126 102 99 95 93 85 89 102 139 146 106 73 56 113 167 88 79 129 127 96 110 111 110 144 141 116 112 102 102 99 100 86 73 66
326 267 109 30 115 114 111 101 116 113 103 105 102 100 101 116 189 129 101 109 92 211 168 163 142 133 103 93 97 106 116 114 143 130 117 91 79 84 85 72 73 70 70
308 168 16 126 115 123 108 107 112 116 120 121 107 109 130 154 116 204 139 118 100 97 112 124 106 88 86 93 111 114 110 120 148 174 115 93 98 81 65 63 65 65 49
170 149 69 154 152 132 107 111 113 124 133 108 105 120 154 128 165 149 145 120 97 104 105 93 81 77 104 132 98 115 121 135 130 117 87 93 85 66 74 63 45 53 51
155 116 117 171 142 109 100 113 110 139 115 104 111 117 186 164 202 180 141 135 103 83 81 69 82 137 115 99 87 85 93 102 98 80 86 85 86 80 70 38 36 44 47
199 80 176 170 124 102 111 116 101 109 113 120 124 128 187 186 314 197 124 100 77 74 73 84 81 90 124 110 66 99 75 68 56 73 81 78 57 47 33 29 29 34 40
145 159 183 149 115 104 95 96 104 116 134 122 115 158 140 245 275 173 108 76 64 76 80 77 77 86 108 125 115 71 54 50 94 91 71 70 71 57 41 36 10 5 9
146 180 153 122 103 93 91 85 91 105 127 124 123 166 153 264 270 159 86 53 69 70 73 65 71 94 152 116 79 48 45 38 37 72 77 66 44 15 8 18 9 11 9
174 153 114 106 109 86 80 85 101 116 125 150 120 173 145 213 254 162 84 68 63 65 60 61 108 79 139 91 58 49 42 34 34 44 32 26 23 43 46 58 46 33 25
356 179 116 85 84 84 85 91 99 113 107 137 139 145 189 206 209 161 94 72 65 57 54 61 146 130 105 63 56 51 47 33 27 16 39 25 14 11 29 67 57 47 31
171 84 71 64 69 89 95 94 91 89 142 158 186 150 129 186 159 150 109 76 66 65 59 67 83 118 73 46 46 54 52 41 26 31 41 35 17 1 -11 -32 -11 3 8
87 70 54 60 68 85 87 82 72 87 150 165 211 178 123 134 129 150 111 79 69 56 52 63 65 57 38 39 40 53 34 40 50 24 39 28 7 -0 1 1 38 35 31
80 33 34 55 66 66 90 87 100 117 132 147 175 146 117 84 98 156 130 84 56 51 50 56 43 39 38 47 72 58 42 46 39 30 25 25 8 -5 -10 -13 9 22 51
29 14 32 50 84 97 76 79 154 125 121 149 146 132 120 109 120 137 127 88 44 50 43 61 45 56 61 72 61 60 69 60 49 30 17 20 13 -10 -20 -32 13 36 118
22 33 53 75 63 85 87 114 174 125 124 128 120 134 122 101 97 114 125 112 80 85 77 53 41 46 43 46 55 63 63 66 51 40 10 8 17 1 -24 -30 -20 22 26
46 44 69 100 106 98 111 129 124 127 135 128 114 134 109 110 125 121 98 82 81 73 64 52 46 52 46 38 45 53 65 69 67 44 23 -5 -3 8 4 -16 15 26 18
58 91 90 89 85 125 124 133 131 109 122 124 117 112 113 105 99 84 80 70 66 78 61 52 50 54 49 38 45 53 62 83 74 59 33 7 -10 -8 -3 14 17 25 22
73 76 67 76 118 124 124 122 123 119 110 112 117 91 92 97 89 81 81 76 79 90 59 53 56 56 55 41 45 52 62 73 75 70 54 24 -1 -16 -9 -3 9 12 28
84 92 124 141 129 122 114 112 114 113 105 93 100 127 91 76 88 97 100 103 84 85 71 60 64 65 67 58 56 72 68 65 69 75 66 51 11 -10 -17 -4 -3 8 35
112 135 151 154 124 130 129 104 116 115 102 94 96 100 102 108 102 115 120 113 98 91 99 66 54 67 79 84 76 78 64 60 65 78 78 63 43 -0 -18 -13 -6 6 11
143 160 166 204 179 149 154 138 108 102 103 95 84 129 98 95 78 90 119 117 118 114 118 105 86 80 93 99 91 82 72 60 65 72 78 70 59 31 -8 -16 -13 -6 10
194 212 209 184 154 132 136 156 129 98 89 82 76 105 103 113 103 83 78 96 116 114 117 137 115 109 108 102 98 94 91 80 73 67 69 80 63 47 23 -11 -14 -8 -1
193 194 187 160 119 102 120 135 118 94 89 80 75 73 120 118 111 106 117 109 100 108 120 143 163 129 131 128 143 123 101 94 86 85 74 73 67 55 47 11 -5 -8 1
172 162 183 170 133 101 111 108 95 77 71 77 78 62 69 89 100 102 111 118 125 130 144 162 161 177 171 146 160 161 119 108 121 101 80 64 65 66 55 39 11 4 -9
189 219 247 164 113 109 101 88 82 82 79 82 85 69 51 50 53 61 69 78 99 112 136 168 191 199 190 167 195 174 124 123 116 94 99 64 61 64 61 51 40 12 8
95 156 138 108 119 127 105 102 117 123 112 107 94 82 70 45 36 44 48 59 75 87 93 138 165 192 247 192 167 207 158 175 152 128 96 70 63 59 59 58 57 38 16

GFSGL_con_3kmhel_030.txt.gz
Helicity
510 421 391 324 327 259 147 144 141 154 174 140 152 146 117 106 120 211 168 100 171 137 135 195 159 177 168 182 124 169 158 162 165 144 136 140 150 137 80 73 67 76 86
516 424 372 300 236 147 263 149 169 179 166 157 166 161 123 125 199 183 229 177 158 147 129 95 100 89 168 160 142 153 151 125 134 159 173 160 127 92 89 80 90 73 85
541 368 305 175 225 184 212 193 171 158 163 190 219 169 128 157 211 215 206 164 131 168 161 136 132 136 129 134 151 119 110 130 151 168 147 118 113 89 85 86 77 95 75
486 306 224 263 95 284 276 194 156 162 194 218 185 138 127 197 242 189 221 193 167 163 134 123 126 117 162 133 110 110 117 132 124 122 113 103 89 81 90 95 85 69 66
390 257 232 139 428 218 216 157 148 164 168 173 132 124 160 236 254 286 258 214 175 140 120 132 138 139 111 145 113 113 138 127 108 96 99 97 85 86 84 83 93 68 28
299 238 404 247 201 328 205 158 126 78 103 141 146 154 163 259 294 278 238 182 131 106 116 131 125 104 139 117 114 190 114 129 111 134 137 107 95 83 81 74 50 35 14
299 354 159 433 247 236 134 91 92 114 138 144 139 142 207 314 292 253 227 163 112 100 114 123 102 101 176 160 151 120 80 52 74 107 106 97 106 104 75 50 48 60 45
307 373 184 279 403 164 144 122 90 101 114 131 170 168 213 304 276 249 204 145 99 97 116 104 97 125 164 144 104 81 85 72 66 89 83 83 91 66 70 71 68 78 76
539 412 402 214 166 137 117 91 95 93 104 138 166 160 193 297 262 247 203 148 116 108 105 88 93 112 197 147 99 86 73 67 51 37 17 26 39 27 47 73 112 107 113
775 738 443 151 137 68 83 96 95 92 98 146 236 243 258 319 252 227 186 153 132 111 87 93 130 170 144 98 96 99 87 71 61 59 65 67 61 45 10 22 48 22 15
625 485 363 144 83 81 85 91 93 88 116 130 184 183 197 228 231 198 164 152 127 128 107 81 118 126 84 61 78 101 90 78 56 78 70 46 48 26 -0 7 9 21 34
573 225 104 65 48 54 76 71 107 100 105 149 201 211 190 178 229 190 157 132 130 123 90 75 81 75 36 49 65 60 56 68 93 82 62 57 35 28 11 14 13 11 19
159 52 53 23 25 38 73 105 117 137 146 134 164 184 159 154 141 190 172 139 120 113 77 56 50 46 33 56 44 93 97 99 93 83 79 70 42 34 8 -4 -15 2 14
39 7 8 38 58 75 85 106 113 179 186 136 154 160 159 188 163 194 178 154 112 112 59 57 71 74 70 69 56 62 122 122 117 106 79 58 60 32 29 4 -21 -28 -37
8 31 55 79 72 79 88 96 150 158 179 179 168 161 160 171 169 173 175 160 163 142 118 97 67 63 74 65 61 70 88 98 104 110 83 78 49 18 10 41 16 -6 3
62 79 77 84 96 96 93 128 125 110 102 117 125 155 166 165 196 163 137 136 149 160 140 102 76 58 79 75 65 63 78 85 126 96 98 80 62 22 10 23 36 14 20
89 90 101 96 108 116 137 138 123 127 104 95 123 124 137 146 140 139 118 108 108 135 154 106 73 61 80 87 73 69 77 94 110 101 94 79 71 50 4 -1 -2 20 21
113 84 121 138 140 180 154 153 148 130 136 121 104 118 125 122 111 112 125 115 134 119 139 127 83 58 71 97 83 77 107 109 85 86 86 88 81 69 38 -5 -13 -3 15
153 161 160 171 200 219 190 159 149 146 133 140 126 119 136 117 97 80 93 135 135 131 137 140 113 80 61 117 115 116 124 103 91 92 85 88 81 75 57 12 -16 -13 8
147 154 181 230 248 249 213 181 174 177 170 138 125 115 130 172 191 131 132 139 138 122 114 117 129 102 69 126 149 154 132 119 99 86 90 95 82 81 65 54 -9 -21 -13
158 170 175 209 283 271 217 175 161 164 204 186 124 102 96 138 200 132 140 140 144 133 126 121 145 137 112 111 167 164 139 119 109 105 97 85 89 74 81 65 34 -15 -24
175 184 192 210 222 242 208 160 134 134 151 161 116 89 78 110 182 137 132 126 136 146 147 142 143 162 168 152 181 175 147 143 130 124 108 95 89 70 66 62 48 15 -14
191 207 190 192 198 242 215 153 138 116 123 119 100 87 83 68 133 179 110 112 113 104 127 141 143 164 185 184 203 205 183 178 152 144 136 126 92 64 67 58 50 40 14
154 155 141 137 115 385 204 129 117 97 107 91 92 83 71 68 68 77 118 131 122 117 121 138 147 150 193 214 219 221 231 232 179 188 186 154 104 66 66 61 50 42 37
126 130 129 109 92 101 67 111 158 110 114 101 130 134 113 96 87 86 76 66 54 65 55 75 84 109 157 221 239 262 242 234 254 225 185 137 93 74 73 58 52 45 37
131 145 134 111 104 91 144 211 186 133 120 113 95 87 95 96 82 73 70 72 44 50 57 68 95 76 98 165 227 271 285 272 250 253 208 129 87 67 62 59 54 59 37

GFSGL_con_3kmhel_033.txt.gz
Helicity
484 471 449 345 333 335 289 354 251 326 160 165 155 169 152 136 121 166 167 172 154 133 113 143 130 150 177 133 91 140 155 183 154 111 91 89 84 85 58 54 73 74 68
575 570 484 366 316 287 251 335 221 198 174 156 178 192 174 144 147 198 188 175 160 150 174 169 151 138 120 108 101 104 108 98 105 99 91 82 84 81 88 89 85 79 87
641 631 535 368 290 321 370 236 212 244 149 178 228 198 173 141 191 196 201 208 187 163 149 142 128 133 146 136 123 115 92 84 102 120 112 106 114 112 106 97 85 69 54
648 641 462 347 326 374 232 239 476 144 156 197 165 139 139 146 208 241 260 261 236 202 179 156 137 166 145 128 107 86 91 102 112 116 99 94 97 98 103 79 60 46 36
725 617 477 425 395 320 401 494 260 141 119 114 98 115 119 194 245 237 251 248 216 181 151 141 166 132 116 108 126 109 111 110 108 111 100 101 100 96 83 72 73 38 29
705 572 508 633 542 450 484 267 168 103 82 72 105 123 146 245 260 262 254 222 198 164 126 126 135 136 162 173 166 150 123 99 101 124 103 109 89 73 78 83 73 69 72
581 525 531 536 449 508 582 388 193 118 92 93 80 115 162 263 264 259 227 204 182 142 112 119 126 164 154 136 131 107 83 68 97 101 101 108 95 90 102 77 74 100 123
496 528 605 607 647 651 633 349 223 141 130 95 90 125 211 222 218 240 231 210 183 144 121 132 128 147 127 128 117 86 72 78 80 90 104 81 95 91 111 91 87 110 114
735 776 805 779 893 837 616 206 98 114 89 65 111 130 184 234 217 232 246 201 179 142 120 120 129 148 126 130 102 67 64 74 62 47 38 48 48 52 55 67 49 32 27
852 979 1111 987 796 374 155 116 109 69 49 97 140 165 185 208 203 220 232 228 187 136 116 147 147 131 125 107 80 75 70 69 76 76 72 71 79 75 44 60 48 24 16
978 767 609 264 145 116 76 58 74 76 94 101 115 134 158 169 179 174 173 214 179 147 135 119 132 121 88 59 58 104 107 92 91 85 83 77 64 59 45 43 45 49 13
489 272 82 132 90 49 37 52 80 97 111 116 142 137 160 187 184 163 166 167 151 159 134 117 100 91 62 49 57 54 50 75 109 101 111 73 70 57 59 46 27 31 42
164 169 118 81 75 55 65 80 86 91 123 153 161 161 168 163 179 165 166 155 157 166 145 101 61 59 38 46 32 28 48 103 118 111 111 88 81 68 33 26 31 26 19
145 131 101 73 75 82 87 87 110 119 129 158 171 167 166 169 159 207 201 197 142 162 135 118 93 80 65 65 53 49 73 94 120 122 114 100 95 69 47 38 40 42 -13
107 84 77 87 90 89 98 106 109 122 144 161 187 195 192 178 177 208 193 197 191 165 169 163 129 99 73 57 71 70 68 83 104 131 105 76 68 68 60 40 31 30 20
86 100 105 105 105 112 121 129 108 110 104 109 117 163 159 148 125 137 173 146 128 139 207 209 170 111 76 51 62 65 66 75 114 110 98 90 70 67 64 47 20 7 22
114 107 127 128 140 149 159 168 170 155 101 97 93 95 95 113 142 156 153 162 159 205 221 197 162 111 76 56 75 85 72 88 116 102 99 86 74 71 66 46 32 -9 0
132 137 165 177 184 185 199 229 233 200 176 171 157 107 88 81 107 134 179 142 175 158 200 171 138 118 95 65 66 85 86 148 123 96 84 71 64 87 65 50 43 -2 -13
147 190 215 248 262 255 288 271 269 242 233 186 169 162 121 76 72 86 162 190 194 179 167 160 145 126 100 77 65 82 138 145 119 101 90 77 60 84 72 56 51 7 -24
172 183 202 211 211 230 250 275 293 244 221 194 181 170 184 134 115 102 139 198 172 148 151 145 147 146 109 86 90 94 140 152 116 94 83 83 81 96 74 65 64 37 -11
137 144 173 187 198 212 217 231 222 225 199 194 177 161 149 129 105 127 132 195 164 138 139 140 132 147 152 124 126 148 156 156 124 94 98 109 114 91 63 69 71 43 28
162 163 163 167 157 135 143 172 239 246 256 221 131 141 120 132 102 85 99 196 226 155 135 133 130 134 137 133 120 153 197 201 163 156 135 122 118 97 64 58 54 48 42
143 155 156 150 152 139 131 115 104 112 272 147 114 121 129 111 90 77 54 115 238 144 151 133 120 137 158 163 162 166 167 195 189 180 154 137 130 109 83 64 52 52 45
135 137 129 135 153 172 165 121 105 95 85 106 106 99 127 145 126 115 86 72 81 101 136 136 134 126 142 160 170 197 203 186 211 181 193 174 152 119 103 74 58 54 47
118 127 125 123 158 199 181 113 92 87 156 200 217 177 163 148 124 103 89 78 69 70 127 143 86 61 58 66 96 151 211 247 236 242 224 212 180 146 131 98 68 54 47
99 90 90 116 150 182 174 169 252 360 401 293 227 180 147 101 80 69 52 52 60 61 62 70 58 46 59 81 67 100 162 266 336 321 276 219 177 145 129 83 66 58 54

GFSGL_con_3kmhel_036.txt.gz
Helicity
453 487 496 451 397 339 321 347 329 369 461 319 248 126 217 141 135 149 125 151 149 131 127 105 109 105 114 117 124 133 124 122 134 109 125 85 70 53 71 101 102 103 97
517 549 549 497 381 355 334 316 452 419 286 240 239 228 178 145 154 132 145 156 137 134 122 125 120 154 160 136 142 128 117 101 104 105 89 87 68 73 87 91 96 95 84
566 554 562 443 419 389 366 492 456 286 372 379 322 223 161 144 131 169 148 159 149 139 132 140 127 139 146 160 134 126 113 101 93 105 110 112 86 80 82 86 87 71 66
561 621 543 567 481 521 556 527 451 413 531 423 361 181 139 123 199 156 166 193 205 195 175 167 145 144 149 135 127 126 107 94 96 109 120 104 85 76 93 84 61 64 74
560 599 601 465 487 652 651 356 743 432 697 434 261 216 143 207 179 189 225 241 221 195 175 171 155 129 112 124 145 117 106 94 100 104 101 82 61 56 59 71 81 71 76
713 710 585 545 612 500 679 463 534 624 531 464 212 143 161 144 133 208 265 248 220 196 165 157 138 135 158 153 150 124 100 93 96 106 100 83 70 68 76 75 84 79 59
688 645 593 620 678 680 567 685 751 666 311 172 113 131 85 99 167 229 242 248 221 190 176 162 141 161 152 145 131 117 94 83 96 115 101 96 57 59 71 70 85 111 89
617 585 592 650 792 820 847 704 490 178 142 97 71 42 70 129 166 199 240 236 209 182 161 157 142 136 137 142 125 99 81 74 82 100 116 96 94 84 91 81 92 57 51
762 816 839 947 1096 879 570 119 94 104 96 81 61 75 101 127 152 188 248 244 223 178 168 159 131 141 137 129 119 89 67 64 70 77 82 64 47 41 63 94 69 32 1
908 978 952 1043 635 107 117 86 105 85 93 89 101 95 104 119 133 169 230 266 218 195 171 146 120 132 130 120 111 81 70 63 70 79 103 94 80 61 44 103 95 44 32
526 444 561 242 151 112 124 128 123 121 103 96 107 105 118 138 151 164 179 273 221 211 180 155 134 113 120 105 70 96 92 67 58 75 100 94 99 79 75 76 93 83 32
239 207 163 151 142 148 135 131 106 114 123 110 120 121 135 146 152 151 155 180 192 212 185 152 132 97 98 82 60 55 39 58 90 92 94 83 88 86 68 61 58 75 72
185 169 153 132 132 125 118 121 135 124 126 124 137 144 152 155 174 143 152 149 164 221 185 146 108 98 75 72 46 33 48 76 79 92 85 105 107 95 69 54 56 57 55
142 133 138 135 116 111 117 126 139 136 143 155 158 168 173 181 172 178 202 186 152 220 164 150 145 139 119 91 67 48 70 84 93 96 105 111 98 76 77 82 60 45 37
125 116 107 102 108 117 126 138 153 155 182 189 194 201 184 173 180 169 209 224 213 192 197 197 166 160 120 104 81 66 65 67 90 104 128 108 96 79 68 79 72 48 43
116 114 121 132 138 147 158 152 137 145 141 137 127 174 168 147 123 111 132 122 142 184 240 210 191 177 159 126 86 65 70 65 77 111 120 107 100 80 67 63 65 56 37
107 119 139 143 166 189 207 226 220 200 169 153 131 100 100 113 106 86 86 113 107 192 249 204 190 178 155 130 99 84 70 64 94 133 121 97 87 68 63 62 48 45 38
116 126 156 174 189 204 223 228 234 231 236 256 202 160 133 109 101 99 83 110 154 178 263 213 198 169 142 119 99 87 59 70 114 141 122 95 90 79 65 63 50 54 42
132 142 164 170 178 192 202 207 221 217 218 202 203 214 169 104 96 101 74 126 147 194 240 192 181 164 143 123 109 99 81 78 124 150 119 102 90 93 67 61 55 46 36
133 158 161 161 161 168 179 188 188 191 183 187 207 196 152 175 159 133 144 114 116 142 176 200 174 151 136 127 109 89 83 92 119 129 110 108 86 101 80 60 53 57 46
125 134 151 162 174 175 171 163 157 160 142 116 138 151 199 161 140 154 143 137 111 116 148 187 157 150 146 122 111 106 95 99 108 129 118 110 110 107 81 67 52 51 47
144 153 157 163 156 160 164 154 146 150 151 108 90 123 130 160 92 102 103 94 105 115 133 152 155 141 129 121 119 123 107 114 127 139 132 125 124 102 103 88 62 53 48
153 155 161 154 141 136 136 134 122 124 115 120 142 142 102 72 77 99 114 133 110 77 84 204 132 123 115 113 116 133 142 129 131 159 145 143 145 130 119 104 80 57 52
149 142 141 120 109 114 124 145 152 167 309 319 226 275 289 229 222 235 150 111 91 86 82 100 110 94 140 139 127 135 130 126 142 165 158 150 140 142 137 123 101 74 55
144 136 121 101 89 91 100 119 131 135 158 164 262 292 343 280 209 177 130 84 80 83 90 70 66 92 100 131 73 93 98 106 134 174 184 161 154 147 146 135 122 98 68
144 136 119 112 109 101 88 84 89 92 34 36 15 24 51 76 80 103 92 88 94 87 84 85 94 102 91 62 52 59 58 87 107 153 225 212 197 165 155 152 123 106 82

GFSGL_con_3kmhel_039.txt.gz
Helicity
268 346 380 441 525 543 501 469 502 510 410 441 388 332 291 373 253 190 190 164 174 160 157 143 97 83 83 101 120 131 128 145 161 121 105 81 79 66 68 96 90 98 89
367 431 484 537 511 468 422 419 472 510 406 329 280 321 401 291 288 191 162 179 189 202 171 148 92 114 113 132 154 155 157 148 145 127 99 82 76 80 87 88 86 83 87
447 491 493 434 417 418 479 460 462 505 497 478 423 399 293 369 262 145 187 217 198 173 166 154 127 156 129 149 158 167 163 152 141 137 112 99 99 96 91 93 82 76 71
470 472 446 456 522 554 506 510 554 517 288 333 454 418 460 372 152 165 190 186 176 194 201 193 158 151 130 145 157 150 158 147 135 121 113 112 115 96 98 71 45 62 63
472 468 547 555 548 559 596 667 548 699 637 715 564 554 195 174 170 137 174 199 230 220 201 202 166 156 136 139 173 153 161 153 131 116 116 114 103 93 90 75 57 54 53
489 539 614 589 621 622 663 691 695 670 605 610 185 137 117 142 93 92 169 241 244 235 231 203 183 159 146 127 136 132 151 151 125 125 123 121 112 115 106 71 54 44 33
573 591 628 661 645 699 697 731 640 578 230 125 121 140 104 79 73 89 175 264 269 257 235 219 195 180 166 172 153 146 134 103 102 123 128 126 127 112 97 64 48 54 72
494 532 597 699 768 773 739 653 467 186 113 126 126 82 105 92 81 104 171 243 250 236 238 232 198 161 161 166 166 156 130 103 93 101 120 108 113 104 121 96 61 48 56
631 706 762 782 775 655 464 428 197 121 137 158 123 145 146 116 98 112 196 233 242 237 246 233 207 166 121 112 167 150 119 84 72 65 62 59 63 69 74 105 66 41 38
563 650 739 863 747 267 212 121 133 160 150 162 153 124 112 116 113 122 173 245 254 237 244 229 160 167 131 113 168 154 121 81 79 82 78 74 84 85 65 109 108 57 53
347 317 204 153 159 149 133 150 170 158 157 137 124 125 130 139 136 121 134 247 232 243 264 235 196 152 136 107 112 156 120 84 77 80 76 82 83 87 94 101 107 109 85
212 169 149 154 144 131 125 127 141 142 139 131 151 150 156 149 137 125 128 160 196 245 237 208 194 150 125 103 104 100 68 74 95 91 90 83 92 91 91 89 86 87 99
200 190 166 135 114 115 134 136 139 138 159 167 187 186 173 165 167 127 114 119 130 227 207 197 189 144 130 124 87 74 83 95 92 106 91 96 111 95 86 84 71 74 62
167 132 117 120 119 123 129 134 156 168 183 190 204 205 207 207 197 163 152 162 142 182 188 184 216 210 193 172 139 116 120 105 95 95 104 99 93 96 104 91 75 65 56
118 119 122 126 129 136 149 167 183 199 219 225 241 249 259 222 213 163 153 168 181 186 209 220 203 185 165 173 157 139 126 105 103 105 112 108 105 103 104 81 77 63 73
128 128 128 125 125 124 129 122 125 154 174 193 199 243 239 212 161 150 124 103 110 132 207 212 193 202 184 183 175 135 138 102 93 94 102 117 113 105 94 75 75 75 73
128 113 97 96 99 108 120 136 139 115 127 138 156 164 153 153 162 106 89 122 121 144 216 197 192 197 198 192 162 145 121 107 103 93 104 126 113 101 91 82 68 71 72
114 119 108 112 124 136 150 161 180 194 182 154 149 136 123 98 102 90 97 138 174 176 188 201 194 169 190 176 151 138 110 101 109 91 109 129 121 108 96 83 72 71 71
100 101 111 114 130 144 154 169 177 183 188 183 153 123 113 94 106 94 71 156 156 159 141 165 194 161 160 174 164 139 118 106 106 107 112 130 127 122 93 81 70 53 62
93 106 112 113 119 134 147 158 172 166 151 144 143 131 99 73 102 86 110 158 140 131 117 142 163 165 164 160 156 136 110 105 99 103 100 131 140 130 100 87 81 63 60
92 107 135 137 148 154 153 149 141 147 109 92 96 103 100 141 125 67 63 122 122 118 81 99 145 152 179 161 143 129 99 93 106 115 118 127 144 127 94 95 79 60 54
126 132 137 137 143 144 135 125 120 125 121 103 93 199 281 116 155 125 122 105 88 83 84 62 97 171 166 156 138 122 116 100 99 108 114 123 144 123 115 105 87 73 63
134 150 152 157 154 145 133 119 105 105 111 118 103 113 137 146 263 305 265 218 192 161 121 111 88 56 146 159 103 104 104 104 105 116 122 126 132 143 147 121 106 91 73
157 164 167 160 154 144 135 115 109 101 94 90 86 74 62 38 120 192 202 215 277 182 122 100 81 70 67 86 119 120 130 106 112 113 118 132 139 155 160 142 127 99 81
159 172 169 158 156 137 117 111 114 103 87 74 69 63 -15 -18 -31 -28 -28 6 129 166 139 95 87 85 63 95 100 93 95 70 107 119 125 125 142 155 163 145 152 123 101
155 160 143 146 138 121 112 103 99 90 85 79 65 56 51 -21 -65 -24 -7 21 81 128 116 104 105 107 111 82 87 105 108 93 84 95 127 126 136 160 182 166 147 138 116

GFSGL_con_3kmhel_042.txt.gz
Helicity
207 234 196 211 246 301 309 328 370 400 495 510 449 294 220 318 458 306 255 280 163 168 183 198 171 180 148 138 152 162 180 214 237 191 153 135 117 92 81 83 82 89 89
197 218 228 271 318 312 301 341 434 513 547 393 287 450 401 447 362 302 179 152 154 182 207 204 165 169 160 169 200 186 210 221 236 194 163 129 105 91 87 75 81 84 95
246 257 283 281 302 330 361 403 447 456 464 434 398 404 463 316 427 266 128 145 186 240 209 195 179 210 209 209 207 201 214 217 224 218 168 140 109 94 74 76 77 81 87
311 284 296 331 398 411 368 403 493 463 469 384 585 450 499 378 126 139 185 198 245 187 202 224 215 237 224 195 209 198 214 218 219 198 163 137 111 86 74 64 63 82 76
315 311 343 406 438 450 454 552 591 595 613 621 776 541 239 159 188 187 146 161 151 189 227 240 240 227 177 180 234 206 227 229 208 179 152 136 104 81 60 83 87 85 67
316 318 356 431 455 498 609 679 726 591 777 515 240 173 171 187 105 65 102 128 166 226 240 254 249 203 195 171 155 169 217 237 202 195 161 124 101 83 86 87 88 69 61
315 328 375 429 491 548 609 631 664 577 533 155 161 143 147 139 107 74 73 140 191 225 255 256 256 243 217 205 163 191 192 170 193 181 148 122 112 88 85 75 70 86 86
331 359 396 463 540 570 605 616 477 332 125 103 97 128 125 110 78 86 101 147 181 197 227 242 255 239 250 224 222 226 208 183 155 150 135 107 93 73 88 88 94 107 118
362 373 386 436 490 517 529 468 193 85 125 96 109 113 117 112 94 97 137 170 181 179 201 225 247 253 179 172 232 190 177 152 133 92 71 65 53 47 54 98 86 93 79
284 358 410 417 458 260 120 100 131 128 112 115 111 116 113 116 106 114 150 215 206 194 194 204 176 225 182 169 219 202 179 141 148 124 105 83 69 65 51 91 101 103 95
183 187 181 179 138 113 104 123 116 105 105 112 122 117 129 145 147 125 138 229 218 215 230 226 212 175 171 163 164 218 179 141 128 121 100 86 82 76 75 83 94 110 109
188 193 188 171 150 136 124 114 110 116 118 121 142 140 159 167 154 147 142 154 186 240 224 208 195 144 162 160 179 162 114 128 142 131 114 86 90 87 73 82 81 90 107
188 179 165 145 130 124 122 119 122 130 144 152 164 168 169 200 214 175 158 158 151 206 221 189 157 140 139 162 154 158 156 168 154 145 115 94 102 101 79 88 79 73 73
199 187 165 153 141 134 127 131 140 148 155 150 162 172 185 197 228 238 236 237 178 178 178 173 169 200 206 188 217 177 173 180 176 153 124 97 88 100 108 99 97 70 74
175 157 145 130 126 118 118 117 130 140 154 163 174 192 198 193 191 183 204 245 225 222 261 176 191 210 188 188 194 173 186 181 177 163 131 108 91 98 100 98 95 75 80
158 144 128 112 107 100 94 85 83 88 105 124 136 183 187 186 153 137 143 137 141 144 256 189 208 221 188 170 150 170 184 173 162 159 132 113 93 97 96 94 87 85 69
125 108 89 84 82 80 83 82 79 81 93 109 111 118 130 131 126 105 93 96 110 100 127 196 194 169 155 159 141 141 170 169 151 152 138 113 101 98 106 88 78 85 66
100 107 93 91 96 100 98 103 106 111 108 93 99 112 110 121 116 102 85 94 127 126 164 218 183 151 139 164 160 146 147 143 149 130 123 115 116 115 105 87 77 88 68
97 90 92 88 91 100 99 99 109 118 136 134 115 82 53 88 85 65 63 133 118 118 149 156 136 145 124 136 146 150 119 142 148 141 110 116 119 131 99 87 77 79 75
99 113 103 93 100 107 110 118 130 144 139 131 111 95 61 29 13 73 106 119 129 63 122 104 114 102 99 132 149 161 122 137 138 123 107 108 122 137 110 94 86 79 69
79 90 110 111 121 129 136 141 142 138 140 116 92 78 81 68 59 60 121 226 201 138 87 116 124 113 97 116 144 159 122 114 118 108 104 104 132 130 111 101 83 74 65
104 114 111 120 134 146 148 145 137 143 133 114 95 76 65 67 61 63 46 60 165 185 251 260 152 112 71 100 122 148 120 100 115 109 100 109 129 118 125 113 90 77 68
109 123 133 148 154 159 155 153 148 142 119 103 97 87 73 63 54 38 17 38 13 60 148 201 199 139 139 108 79 81 170 118 91 114 113 116 123 124 128 117 107 98 76
126 138 155 154 147 150 152 148 132 119 104 100 94 85 71 65 55 50 12 -12 15 26 49 116 194 174 119 94 85 60 72 85 106 84 82 109 123 139 145 138 129 110 92
146 147 142 143 164 152 143 130 124 116 105 101 91 80 62 61 52 61 50 34 13 16 54 68 57 155 125 123 102 98 88 84 82 75 118 109 130 137 147 150 162 132 120
141 150 145 145 154 138 130 114 106 106 98 90 81 69 63 64 56 63 54 45 50 81 41 51 88 131 145 114 102 110 114 125 88 91 87 129 133 149 131 136 168 152 130

GFSGL_con_3kmhel_045.txt.gz
Helicity
111 120 125 171 178 183 215 244 275 292 318 352 408 436 350 418 194 365 370 239 115 130 155 176 139 133 145 146 139 142 135 157 155 130 184 158 140 111 102 95 81 74 78
101 140 130 145 179 183 203 240 269 295 326 418 463 429 323 348 318 479 424 135 112 149 154 144 108 155 140 143 156 140 149 147 161 143 136 165 135 110 101 86 79 80 86
116 113 120 137 171 182 202 212 241 290 280 373 460 548 250 505 315 372 150 93 136 138 122 136 115 154 154 175 163 170 165 176 178 180 149 169 131 111 93 75 67 67 85
122 138 148 158 171 165 164 171 181 192 284 426 479 444 469 521 240 177 134 144 125 114 107 105 119 167 172 169 174 168 171 178 178 184 163 147 130 112 98 74 65 67 75
163 175 176 157 155 151 201 273 327 414 525 525 495 536 424 249 197 195 148 98 89 68 76 106 144 166 193 206 209 176 177 180 177 173 160 146 118 108 94 80 64 64 57
161 164 159 173 242 301 354 413 462 493 421 558 475 366 154 174 133 81 59 67 68 99 105 132 146 200 214 214 199 191 191 167 159 173 153 136 101 104 90 76 64 73 60
150 149 170 217 285 321 356 399 431 461 407 414 171 131 148 113 80 45 54 98 108 104 121 136 161 202 229 226 219 214 192 183 183 158 150 117 105 91 83 66 58 63 64
163 160 177 241 301 321 368 401 374 313 179 119 97 86 69 55 55 67 94 113 124 126 135 138 158 185 218 220 228 254 178 169 169 180 151 108 102 90 83 67 57 52 60
151 166 170 213 269 304 290 199 128 104 68 86 92 76 70 83 99 90 115 136 146 141 153 161 169 173 184 219 245 199 190 169 156 140 128 102 95 82 56 69 61 63 62
153 163 147 180 174 139 126 120 101 91 97 98 87 97 110 99 95 107 130 173 171 175 176 182 169 131 174 200 212 213 215 148 156 134 129 106 95 86 68 64 64 67 63
154 150 145 157 165 165 145 123 110 112 108 116 118 112 117 121 119 116 126 177 195 201 211 205 195 157 142 176 206 208 225 143 166 133 118 116 109 101 87 79 73 77 69
168 175 191 187 157 132 132 130 126 126 126 120 124 119 119 119 128 134 149 162 170 236 231 222 198 168 143 139 185 173 172 192 183 159 136 123 106 104 88 84 75 74 70
209 196 173 159 150 138 138 136 127 126 126 125 124 125 127 132 137 142 152 173 197 254 257 219 179 173 151 170 142 156 175 216 211 184 149 128 99 97 89 83 76 64 57
196 174 161 158 144 142 129 130 133 137 137 139 150 153 144 141 146 144 159 191 206 213 204 199 189 173 148 170 150 140 184 208 241 188 135 120 108 111 92 79 72 62 56
177 167 158 141 144 135 134 133 135 143 168 169 175 175 170 156 167 180 181 192 201 195 205 189 193 266 191 147 135 147 137 124 170 162 147 131 116 101 89 81 74 61 54
171 153 145 133 127 121 116 112 135 131 138 170 189 181 175 197 202 184 164 130 137 155 174 180 165 196 194 121 121 116 130 115 107 160 161 139 120 97 81 78 77 60 47
147 129 106 102 96 100 99 98 98 95 88 115 127 139 175 183 183 184 184 138 101 114 143 139 119 170 177 125 141 119 112 108 79 72 134 135 122 96 100 76 73 59 45
112 116 95 92 95 99 99 98 96 104 99 104 116 129 157 157 143 119 124 135 150 133 127 103 86 89 175 156 147 117 104 94 95 69 93 126 122 101 93 84 73 55 44
106 100 87 86 96 96 101 105 109 115 125 138 142 149 150 131 83 94 107 82 110 136 144 135 46 52 165 95 99 97 86 76 85 64 95 126 112 99 87 73 68 63 52
89 111 96 89 96 107 109 112 125 142 162 164 160 148 118 99 87 67 61 71 67 79 80 78 103 104 77 70 80 83 71 76 76 64 95 127 104 102 74 70 68 56 48
80 82 86 89 105 110 112 132 150 166 163 157 140 119 104 93 92 80 71 60 68 55 36 45 90 200 232 82 50 55 58 55 49 61 86 114 102 94 64 61 62 62 49
77 80 94 108 108 125 144 159 163 166 157 161 135 106 92 86 91 84 77 64 47 56 54 40 32 66 147 176 172 74 47 41 42 52 66 89 79 68 66 61 59 64 55
88 106 115 119 126 145 159 168 167 165 160 140 125 110 98 89 81 68 57 50 46 43 56 55 45 55 103 129 180 127 99 60 57 94 67 71 77 66 68 67 68 75 62
111 120 125 132 150 163 176 185 171 155 142 129 115 104 95 86 70 50 49 50 49 49 52 47 45 57 56 90 139 149 98 94 62 79 57 58 57 62 66 68 71 75 78
131 141 142 145 160 180 186 176 156 140 129 119 109 102 93 80 59 51 52 50 51 55 52 46 40 39 93 126 142 142 119 124 94 74 89 54 41 34 56 77 98 103 106
143 154 153 149 161 178 179 163 144 126 118 110 101 93 85 66 57 61 62 45 46 58 52 58 44 74 83 97 105 121 150 135 105 116 88 70 60 72 72 67 89 132 128

GFSGL_con_3kmhel_048.txt.gz
Helicity
75 68 84 71 82 84 143 127 152 177 234 269 225 273 367 438 489 528 557 315 243 189 102 90 95 109 121 118 110 114 115 130 137 129 131 100 181 144 115 116 100 93 81
92 74 71 85 92 97 109 127 195 219 186 190 267 420 406 535 532 577 595 412 167 143 73 95 106 116 120 97 115 138 126 116 144 130 125 122 130 163 131 118 97 100 80
92 114 128 139 148 158 180 200 182 208 165 256 325 263 331 517 516 411 369 183 133 106 113 84 113 126 120 118 129 171 129 144 171 161 133 132 136 143 131 121 95 90 76
126 144 156 172 176 187 184 173 160 168 185 223 280 315 425 389 464 241 202 166 152 115 109 115 120 98 93 104 122 193 161 171 163 161 156 145 136 121 146 127 99 99 76
176 195 210 221 206 191 179 195 191 193 225 237 303 340 306 397 172 164 175 178 153 129 126 96 89 81 91 119 151 150 186 207 185 161 163 154 140 129 146 144 117 91 72
191 200 188 177 188 196 201 202 214 233 253 241 229 224 161 163 138 132 142 153 133 105 106 82 89 107 127 144 175 183 194 188 183 201 183 176 120 143 142 131 107 96 77
198 203 191 173 169 166 170 179 224 258 246 188 141 149 106 106 131 125 127 108 103 88 93 108 106 111 165 141 170 208 228 232 253 188 200 159 138 125 132 119 93 90 72
189 160 131 127 148 174 208 226 217 189 169 148 119 90 96 106 118 113 118 107 113 94 100 110 122 130 137 192 141 195 175 157 204 187 163 114 129 123 129 106 98 75 60
163 160 157 138 143 150 142 144 141 137 115 65 81 99 90 89 128 107 111 119 128 118 127 131 140 152 164 225 186 187 164 180 180 233 207 199 209 195 139 110 104 86 64
165 170 152 129 132 154 144 128 104 79 101 99 100 102 117 97 99 107 130 154 163 169 153 160 193 199 176 243 221 179 206 124 131 162 207 158 132 112 114 108 91 84 64
203 195 196 198 184 134 100 95 106 106 105 124 124 121 111 116 130 167 171 203 202 212 219 221 230 254 233 193 201 193 197 121 126 157 169 195 133 98 101 113 75 72 60
205 202 179 152 131 126 123 116 109 127 130 128 136 124 131 144 171 169 168 202 227 259 255 254 216 214 238 231 218 173 157 184 170 188 221 159 151 128 112 112 95 81 65
199 200 181 166 149 137 144 140 137 131 133 138 135 143 151 165 159 186 225 189 160 182 213 212 188 192 186 201 162 169 199 180 192 181 199 179 173 145 104 118 106 79 57
223 229 200 210 170 156 140 141 147 149 142 144 156 161 170 158 174 218 176 161 148 160 167 192 190 192 157 131 146 150 174 188 177 173 173 163 155 163 137 128 101 83 68
242 224 197 174 163 149 153 152 154 173 155 145 170 160 170 162 191 173 173 180 174 157 148 178 178 160 144 119 126 97 187 186 144 145 123 99 147 155 149 116 99 78 62
250 218 194 165 151 149 145 122 140 137 135 154 168 154 128 148 158 160 163 164 130 127 125 129 141 146 125 90 77 90 126 120 99 121 125 118 133 166 143 121 100 82 52
218 181 158 148 144 142 126 124 126 110 79 75 104 122 156 165 175 174 169 139 101 119 137 149 142 116 81 58 36 67 76 132 107 144 114 119 116 125 147 123 101 83 49
193 179 142 133 129 117 118 115 109 112 104 104 131 147 185 180 165 151 155 118 124 113 116 118 112 87 31 -4 -15 73 146 103 141 106 98 105 113 92 143 130 86 73 49
154 133 117 114 116 109 103 99 102 95 98 104 124 142 184 161 99 120 122 138 118 99 93 85 81 71 33 -28 33 136 109 84 77 80 85 91 84 107 133 110 70 56 57
123 127 105 99 98 102 104 104 106 103 111 129 142 158 158 140 145 143 124 114 107 96 82 63 56 48 6 -23 96 127 66 66 59 67 90 81 87 121 120 90 80 75 58
108 112 104 101 110 111 109 112 112 119 125 135 146 171 167 132 129 124 111 105 101 79 63 54 45 40 30 -2 60 181 263 56 53 58 57 55 97 107 105 86 82 57 57
119 111 107 110 106 120 128 132 136 136 138 147 156 165 149 129 125 114 108 105 86 62 60 58 50 46 35 37 46 80 119 230 110 45 33 45 78 96 97 74 67 63 56
114 109 108 118 127 131 143 158 154 154 155 158 166 162 147 138 125 113 112 94 71 64 61 55 55 42 37 42 59 72 103 144 103 87 82 48 61 81 78 54 52 58 55
112 117 126 131 148 149 169 169 167 157 158 167 181 170 146 123 106 96 99 77 71 68 68 56 51 36 31 33 42 64 69 75 81 85 75 85 52 63 71 61 43 39 44
110 116 126 138 153 170 175 177 173 173 183 185 174 150 125 104 91 91 81 75 70 63 58 54 42 34 24 28 46 78 81 86 99 87 75 71 60 42 52 51 45 50 52
114 124 134 144 164 179 189 197 188 184 185 175 149 124 104 92 84 79 74 64 65 62 54 54 44 29 13 22 46 58 84 116 115 104 88 75 74 44 46 39 34 54 68

GFSGL_con_3kmhel_051.txt.gz
Helicity
82 125 124 127 95 125 129 148 200 141 135 188 208 236 345 327 423 500 403 449 485 482 360 135 107 82 124 110 142 177 200 190 178 153 140 135 135 161 145 176 175 154 131
104 146 167 178 149 132 147 181 163 152 224 273 334 270 265 543 634 408 436 490 415 352 102 153 107 102 118 119 183 188 173 200 201 142 129 155 170 148 150 179 205 133 117
124 142 226 282 238 253 259 272 271 279 276 280 302 352 444 434 390 348 390 390 231 185 108 106 114 143 154 177 159 157 173 199 191 174 167 200 192 157 160 161 181 187 153
190 207 250 241 227 226 246 262 277 273 277 283 274 301 297 262 253 281 248 162 149 123 148 144 143 156 134 132 132 152 170 189 189 187 158 221 169 146 172 175 200 152 168
227 234 216 208 200 204 208 224 248 254 233 217 221 218 201 187 160 130 152 173 177 163 168 144 109 81 97 119 137 151 147 161 213 214 234 210 174 175 192 156 188 217 173
207 207 210 210 238 253 257 248 225 222 209 201 197 163 158 157 164 146 172 162 149 140 110 107 97 124 118 132 160 159 148 153 167 200 245 199 162 237 189 149 200 225 180
254 232 212 219 243 247 238 229 239 250 252 213 180 158 171 169 137 116 123 125 118 111 109 124 123 126 137 133 152 190 167 168 223 203 230 202 176 168 157 141 215 186 168
189 201 222 240 231 206 225 229 212 176 179 188 168 136 116 103 91 96 133 121 119 111 110 115 130 137 148 160 172 189 223 203 200 192 201 190 153 123 117 161 184 208 159
217 236 227 189 194 195 205 202 214 213 173 132 109 84 85 109 105 123 135 133 142 135 131 137 146 167 170 192 234 247 225 231 196 205 229 223 299 254 228 202 199 170 149
223 206 184 195 211 250 241 208 147 106 128 130 132 117 139 103 154 192 178 181 174 187 183 169 176 177 168 182 221 251 242 231 167 132 185 191 211 206 241 189 168 170 139
224 239 236 234 225 208 161 119 143 156 141 139 121 127 122 137 179 257 250 208 246 223 202 197 209 196 218 239 264 252 236 190 163 160 160 170 179 183 182 188 129 115 103
224 220 219 202 181 172 187 172 145 142 153 147 150 141 150 169 247 288 274 242 198 184 180 196 201 190 161 130 152 159 146 137 184 194 197 244 130 209 208 183 187 136 93
218 223 227 236 235 207 186 174 187 176 165 168 150 154 152 179 161 258 223 177 159 176 186 178 143 133 116 151 145 128 138 153 138 147 184 178 155 154 153 172 191 88 117
247 246 266 261 226 202 189 193 218 195 179 166 167 164 174 158 186 216 163 147 149 152 164 155 144 126 119 138 132 127 147 136 141 144 132 145 136 125 178 212 173 150 129
284 298 281 264 241 215 224 217 186 180 178 175 193 172 173 160 207 174 152 142 139 129 129 134 137 136 135 119 101 95 88 57 84 95 210 153 99 132 165 172 150 133 120
321 320 290 256 232 207 201 158 175 174 143 171 174 171 152 171 162 144 128 117 109 88 134 146 158 140 130 103 90 44 9 20 80 90 136 77 71 108 130 174 179 134 115
338 292 256 221 211 200 170 160 148 112 86 83 96 102 112 118 127 122 125 133 103 145 159 155 148 134 119 106 85 35 -81 -33 38 127 125 71 89 96 134 178 146 128 120
265 252 195 183 177 157 162 155 150 156 137 126 102 133 150 133 134 120 144 151 192 171 154 138 126 115 108 87 64 23 -14 -16 36 152 111 102 107 93 95 138 139 122 123
174 168 156 145 149 145 138 135 136 130 133 136 133 124 177 187 124 104 145 177 171 152 135 117 110 97 80 63 43 1 -27 85 60 116 105 90 68 73 79 84 127 135 116
160 149 128 115 114 121 126 128 130 130 134 136 140 169 176 169 152 167 179 176 161 144 128 115 96 79 74 55 32 -16 -28 106 313 49 58 66 71 70 62 86 143 126 113
132 119 124 118 131 139 131 127 135 132 133 142 159 217 199 166 141 172 175 172 154 134 120 111 92 80 67 56 39 23 51 67 209 281 155 42 56 48 57 115 121 99 120
124 115 115 127 125 131 138 134 134 138 148 160 169 184 182 143 168 174 170 165 138 115 117 97 88 78 66 54 44 33 67 68 99 128 178 202 89 36 65 94 88 101 124
122 119 119 129 138 128 109 131 138 158 162 166 170 181 184 180 179 167 160 136 114 111 96 91 82 72 62 48 45 36 35 71 74 64 78 101 118 71 57 76 75 99 98
130 129 135 136 143 137 141 155 158 159 156 164 180 186 183 176 164 150 133 118 107 93 86 80 77 57 54 41 43 36 33 33 44 78 112 87 69 111 57 61 67 65 66
129 140 147 152 147 152 156 153 167 163 171 178 186 184 175 166 158 140 120 103 96 82 72 68 74 61 45 29 42 36 25 36 30 73 77 68 71 61 116 54 63 64 52
134 143 150 156 164 168 170 169 165 173 182 190 201 191 181 167 150 127 113 95 84 78 54 64 55 44 40 43 34 37 17 41 55 80 71 73 84 79 86 40 36 55 60

GFSGL_con_3kmhel_054.txt.gz
Helicity
294 309 343 288 153 110 132 160 157 261 186 179 184 206 255 372 450 527 566 564 605 392 296 292 283 215 124 92 138 199 233 260 305 275 242 209 188 183 211 223 247 278 272
199 279 188 166 181 196 160 171 166 187 186 182 244 311 363 397 434 480 533 409 454 281 252 272 195 145 115 118 175 195 229 243 257 259 243 247 214 159 218 213 253 264 274
200 165 178 315 326 327 271 267 267 282 305 350 374 379 357 368 409 384 338 295 273 206 183 188 146 147 135 156 177 201 215 188 203 268 285 295 256 209 247 227 265 245 264
311 358 468 397 307 273 280 299 316 329 351 360 353 337 318 303 292 309 298 267 206 202 159 184 155 144 152 145 153 148 163 178 197 248 291 301 305 269 279 266 276 284 285
455 437 382 332 283 280 296 320 330 342 338 319 315 311 307 291 264 245 225 182 167 161 153 148 136 125 89 83 110 139 180 195 201 224 259 322 333 308 292 260 296 311 286
308 282 250 240 276 293 286 262 266 270 271 280 267 249 236 222 224 182 209 204 166 143 130 92 76 82 85 91 75 97 180 215 249 283 253 247 288 291 284 284 261 262 269
311 296 325 343 326 279 239 247 242 242 248 276 261 226 201 212 180 154 135 131 108 97 98 97 109 115 113 136 154 158 176 179 244 304 291 259 230 223 251 239 213 231 222
327 311 279 241 214 221 274 323 305 290 273 258 239 200 161 126 112 108 100 82 91 96 106 113 122 133 148 169 186 206 227 249 292 310 316 245 219 209 229 228 192 207 242
278 214 194 208 272 291 295 303 313 274 209 164 148 124 122 201 141 127 98 147 161 151 140 158 178 168 192 207 198 214 228 237 208 184 201 186 172 203 258 288 268 295 261
218 230 248 277 347 349 298 243 190 162 140 152 187 218 183 256 256 223 176 181 192 156 141 130 130 150 170 179 198 231 249 250 244 228 179 157 222 263 281 295 286 278 315
274 339 412 378 292 228 189 169 151 238 283 243 228 215 220 262 255 256 238 161 150 131 129 133 139 136 145 142 148 189 200 184 167 137 128 68 129 364 243 266 256 238 245
378 343 303 250 194 162 198 262 268 258 236 225 233 235 223 222 234 247 238 217 179 146 137 131 133 118 120 134 153 141 119 155 198 178 156 118 47 65 192 236 252 222 198
346 272 207 201 242 246 281 266 307 297 293 257 230 227 252 243 207 283 230 191 155 142 138 129 108 108 126 166 133 138 168 195 205 202 181 126 98 82 106 130 166 169 155
335 330 294 302 314 363 362 371 350 321 271 239 248 244 226 219 226 181 143 125 135 139 137 129 132 133 137 145 147 129 126 126 111 122 150 134 103 86 134 200 245 207 229
400 380 404 359 365 483 438 355 282 259 235 244 241 220 206 209 203 167 144 128 129 124 120 132 138 160 159 145 126 112 100 105 76 32 41 105 63 69 271 206 165 231 215
538 585 481 468 478 383 284 279 252 148 152 166 175 182 174 189 180 162 145 121 114 108 134 141 168 177 170 147 127 104 85 92 84 48 -34 18 63 68 95 117 130 179 193
671 546 501 492 490 435 335 198 138 107 83 92 108 117 135 137 155 143 111 105 114 106 170 180 190 182 159 137 117 96 76 82 81 54 11 34 86 102 80 103 143 179 202
619 578 578 579 474 378 284 223 186 165 119 86 63 37 104 141 138 122 104 124 186 207 205 200 194 176 153 133 107 85 71 66 78 69 102 13 72 101 118 130 150 176 167
726 762 675 533 343 270 239 191 160 141 138 153 162 121 189 210 164 134 149 189 199 195 195 192 176 158 139 117 93 78 60 47 29 38 99 220 105 83 85 90 100 155 154
700 482 259 236 226 190 159 150 143 144 148 159 168 185 212 168 139 160 180 203 219 208 199 179 161 139 123 104 88 74 48 30 7 10 83 171 209 34 65 72 87 88 164
222 245 218 199 196 162 148 143 156 156 163 163 166 181 172 150 150 158 194 208 224 202 174 164 151 124 108 96 81 66 49 25 33 21 -1 150 239 248 110 67 48 140 164
232 215 193 172 149 161 173 165 167 163 158 166 179 187 157 153 160 190 193 207 191 170 161 145 129 115 101 93 71 67 47 34 32 68 80 67 143 157 137 117 81 138 111
165 148 137 149 169 164 139 152 172 175 201 194 183 186 195 196 196 191 193 185 168 157 132 121 112 105 96 75 75 65 51 36 21 56 97 103 110 114 95 137 69 96 101
134 143 155 157 148 151 148 188 174 169 169 178 200 202 203 201 195 189 181 173 151 135 113 107 108 86 84 77 66 56 52 52 63 39 32 63 121 136 86 92 191 77 90
139 155 156 157 165 159 173 167 186 201 210 213 209 211 205 196 191 186 170 152 132 114 115 89 82 75 64 54 69 82 75 52 47 15 32 50 102 165 138 121 160 66 90
128 136 150 161 172 187 196 204 206 217 228 224 227 214 198 195 189 172 162 142 131 113 85 85 77 66 60 76 71 56 72 110 136 98 71 51 88 109 103 83 126 104 89

GFSGL_con_3kmhel_057.txt.gz
Helicity
240 237 247 300 307 253 145 139 80 116 191 251 201 242 299 337 340 373 389 423 456 478 462 334 273 268 187 240 180 202 199 221 221 264 230 220 238 184 156 209 226 297 335
293 382 372 361 304 242 -71 119 195 183 177 160 168 231 282 324 340 360 381 389 342 327 257 197 184 204 170 185 173 162 168 191 226 213 229 202 199 184 190 187 237 290 305
244 261 338 252 197 208 225 283 297 250 245 250 257 281 309 329 343 330 333 322 236 187 197 204 204 220 178 155 135 149 142 146 185 215 199 240 216 235 256 277 259 280 308
220 337 379 332 315 358 357 327 290 280 304 327 344 379 374 354 328 313 269 254 246 228 239 200 192 150 128 135 138 118 111 148 176 211 213 208 265 224 298 281 287 310 262
420 377 416 455 423 362 336 310 327 347 354 368 387 399 395 367 325 286 267 257 254 235 176 133 116 112 100 106 122 133 165 191 226 241 252 268 313 310 313 268 302 273 328
405 396 406 409 420 380 359 342 348 356 343 356 382 370 332 306 282 263 280 274 208 174 139 121 114 99 101 108 127 147 184 217 215 263 252 282 278 346 332 316 340 304 293
413 401 407 430 424 373 342 339 326 325 352 357 333 315 326 293 241 256 217 180 156 125 117 131 132 148 196 189 178 174 185 197 231 250 260 281 285 322 352 315 297 297 284
399 442 443 419 410 385 405 334 340 325 306 295 281 255 257 219 190 174 164 151 151 170 189 198 183 163 160 164 127 119 132 145 169 206 250 265 287 279 320 201 200 232 252
388 378 356 369 408 375 327 311 290 294 264 227 202 234 219 203 205 185 179 191 197 197 166 158 163 170 188 194 166 160 146 137 149 162 177 183 201 184 195 168 215 339 294
350 332 327 362 362 328 305 293 263 214 198 229 291 330 341 333 289 275 242 196 207 175 152 150 164 154 159 180 181 168 155 155 177 179 177 159 149 155 118 122 114 221 300
363 392 418 353 329 313 297 240 214 288 343 369 412 329 340 312 281 259 212 172 143 131 136 122 115 135 146 150 156 163 175 189 203 215 209 199 191 155 138 111 42 170 251
491 434 384 358 330 319 275 271 303 337 352 337 407 393 344 286 243 237 228 203 170 136 122 108 115 120 121 131 135 167 228 213 213 225 190 181 207 199 160 108 109 73 143
456 409 369 371 363 312 340 415 440 379 363 366 401 346 309 264 237 238 225 190 163 124 112 113 108 117 137 140 170 180 172 184 195 191 171 153 146 116 148 127 85 145 94
423 386 392 406 485 572 565 521 479 458 476 462 426 389 321 243 192 160 143 118 125 120 117 125 129 140 132 140 141 145 155 170 166 154 143 133 130 73 54 122 37 170 175
458 501 542 675 725 707 582 478 508 513 411 416 345 289 270 236 185 148 128 111 108 100 103 137 150 140 150 140 134 139 148 150 144 124 125 129 113 33 -3 20 89 78 182
613 657 697 661 633 579 524 535 524 460 402 307 249 214 195 162 154 141 142 133 129 141 152 152 140 136 144 157 154 149 144 137 126 107 108 120 97 -11 6 29 57 100 74
715 702 702 677 572 512 458 480 511 373 293 239 210 175 128 129 141 143 138 147 181 207 172 159 158 145 140 177 176 157 140 116 98 92 91 113 60 36 35 41 145 88 86
855 817 762 741 680 638 560 520 404 244 211 205 99 76 85 101 125 142 122 127 157 165 166 173 167 144 162 186 166 145 123 97 84 77 68 50 51 96 127 34 113 79 75
721 636 578 603 644 619 392 254 270 256 226 190 136 155 180 138 163 156 184 164 151 165 185 191 162 156 181 176 152 137 119 94 84 62 48 1 4 132 293 151 77 100 120
674 722 583 347 257 253 255 253 235 218 205 202 206 197 181 167 142 148 209 203 210 203 185 159 151 174 168 151 137 119 96 82 85 60 36 9 31 82 167 223 173 76 88
395 323 272 245 233 218 209 198 189 194 192 198 201 183 176 177 156 171 185 198 190 178 155 146 160 151 142 138 134 117 94 85 80 48 31 31 54 119 203 228 227 127 73
239 229 210 192 162 163 152 155 170 185 203 217 220 187 167 163 165 184 195 189 163 151 147 159 147 136 130 128 113 106 96 82 56 52 44 45 90 67 138 206 168 147 62
180 161 131 116 120 128 145 164 188 193 196 199 205 213 222 228 226 219 202 182 171 168 154 142 137 132 115 106 116 89 83 68 67 69 62 50 78 152 117 139 140 136 157
113 113 123 131 129 146 161 182 193 200 212 220 219 221 231 228 224 211 195 183 165 148 129 133 125 100 100 88 87 89 77 84 94 81 89 81 78 129 157 143 131 144 147
107 126 145 163 173 174 185 198 211 219 226 232 235 232 222 216 226 219 200 159 164 144 147 117 103 103 95 90 85 74 74 74 86 79 83 90 79 119 144 165 152 133 159
131 143 152 164 185 201 205 216 236 241 243 240 235 225 205 204 199 180 172 155 155 137 98 83 92 95 92 80 64 54 53 52 55 69 72 83 81 106 112 141 176 143 157

GFSGL_con_3kmhel_060.txt.gz
Helicity
220 219 180 123 94 172 239 195 37 141 116 145 183 200 257 266 277 320 315 324 332 365 349 356 232 267 249 236 211 231 200 171 243 246 227 190 191 167 150 188 195 232 250
345 330 240 186 206 227 201 352 282 84 40 112 114 130 195 230 289 311 335 333 365 344 301 257 204 269 241 264 234 199 181 170 236 228 225 228 206 166 177 183 176 185 251
430 409 251 303 288 258 264 273 125 91 63 128 157 164 225 264 304 331 342 322 285 258 252 236 228 251 230 178 203 179 172 179 190 221 197 187 215 209 203 186 198 195 236
535 372 390 333 205 268 323 244 179 171 235 264 249 287 323 342 351 352 349 314 308 291 245 243 230 223 192 180 187 176 168 181 184 196 210 224 233 218 256 245 237 272 271
416 329 262 245 210 359 388 337 280 330 358 337 359 374 383 379 357 359 329 314 313 305 275 257 226 201 155 173 205 183 167 178 182 183 186 205 224 253 265 259 320 278 316
329 344 385 422 395 373 339 342 396 390 402 385 400 400 387 365 355 347 329 318 301 289 273 227 229 259 244 256 257 253 223 199 193 206 224 234 237 247 252 277 293 339 328
419 423 456 448 415 419 425 416 412 376 411 422 392 384 378 360 325 318 327 325 324 305 279 251 268 248 228 202 198 176 158 159 174 197 229 243 254 275 309 309 315 330 329
402 430 458 458 476 471 462 435 403 400 381 374 365 346 349 324 337 352 345 341 333 312 296 268 236 218 196 172 162 153 152 158 186 215 234 220 225 223 249 256 262 270 245
397 423 418 454 494 483 435 409 397 406 377 351 350 354 365 347 334 350 336 335 320 296 255 230 211 219 212 204 165 155 148 157 162 161 154 147 149 152 175 241 227 238 251
412 423 428 487 491 443 400 354 321 341 381 379 397 370 364 393 366 338 309 284 330 301 270 247 243 208 185 174 160 145 140 136 131 125 131 134 136 170 155 219 230 211 217
394 393 422 410 408 365 322 307 335 400 435 464 477 455 481 428 389 357 314 317 302 271 243 215 173 158 158 164 170 151 149 140 138 145 144 159 166 176 185 184 186 201 203
444 438 396 355 330 302 321 346 382 433 485 481 516 550 503 447 400 367 318 296 236 214 191 153 138 148 164 184 170 169 170 157 164 173 171 170 172 167 160 143 129 137 171
422 375 371 361 334 340 379 409 429 467 473 482 497 489 457 427 389 358 314 240 195 160 133 137 142 172 192 165 182 188 166 169 169 175 182 174 168 163 132 120 117 92 106
400 402 407 445 491 504 494 439 425 450 449 435 418 414 401 393 346 281 236 175 157 165 149 143 157 159 165 158 152 164 177 171 169 177 190 177 164 160 132 113 118 59 57
475 518 533 537 542 575 618 546 529 505 432 441 443 418 423 418 319 235 250 217 180 141 141 142 151 156 160 162 161 167 162 155 158 183 192 180 164 146 117 106 65 27 42
574 538 524 573 610 645 650 683 688 572 519 468 408 381 347 262 238 264 234 200 185 154 127 134 131 132 146 159 161 160 147 138 150 170 171 169 156 134 108 80 33 27 47
626 629 668 672 663 639 603 561 548 521 461 464 391 301 291 290 289 280 219 148 146 141 138 144 138 146 138 166 165 162 148 138 149 157 157 148 135 116 98 49 32 21 95
765 747 729 704 672 636 571 504 504 585 579 307 279 261 270 259 215 183 166 149 157 165 160 173 177 170 173 179 171 157 147 147 160 143 149 131 123 100 75 34 12 35 7
916 854 778 711 614 554 563 524 375 288 263 231 215 201 188 162 180 152 150 137 153 177 183 189 176 178 178 176 164 160 152 157 159 140 142 114 111 82 33 29 34 141 183
622 529 488 458 433 374 341 316 272 252 240 232 216 194 191 177 170 167 169 174 179 181 178 177 185 191 177 167 166 153 163 168 147 138 133 118 101 68 11 -6 96 262 245
392 402 384 371 338 302 265 236 219 213 200 192 185 186 184 191 181 177 175 177 189 192 186 192 190 173 165 159 157 169 166 161 131 124 109 96 69 66 42 55 94 169 200
350 319 284 247 221 216 201 178 163 160 172 187 199 202 214 203 194 198 208 216 207 190 184 180 176 169 162 165 166 167 149 130 134 114 96 81 69 66 63 93 120 166 193
219 200 182 169 158 156 152 149 169 186 191 199 210 221 228 234 237 242 241 227 207 198 194 181 167 181 156 137 131 134 129 117 98 88 82 77 69 94 78 114 109 149 174
166 162 153 137 136 136 146 171 181 201 213 225 231 236 243 239 242 249 223 203 199 182 164 162 175 159 151 146 131 127 107 93 85 74 59 64 82 111 119 99 134 124 140
115 123 134 140 145 158 174 189 200 213 215 213 236 244 240 227 232 223 220 208 186 182 174 168 147 138 132 130 119 102 88 68 60 54 55 49 58 104 130 117 118 143 132
131 138 144 161 184 203 216 232 244 253 255 246 241 232 213 211 200 203 190 181 173 167 143 124 123 127 123 109 92 73 73 72 70 68 57 40 52 91 113 99 102 132 160

GFSGL_con_3kmhel_063.txt.gz
Helicity
204 199 187 138 97 35 2 48 69 133 155 139 55 54 110 148 165 254 300 295 297 314 312 297 300 294 307 325 292 249 274 267 248 206 235 214 194 168 150 174 182 209 224
341 289 217 205 159 117 137 118 170 180 274 131 -20 46 131 218 319 277 266 266 344 328 319 310 308 258 305 285 260 250 255 234 246 208 195 194 181 159 160 163 172 195 224
497 480 394 333 286 72 240 -44 65 182 215 289 35 -84 75 166 218 202 220 269 296 310 314 323 267 281 294 237 297 288 258 247 220 218 213 172 167 174 174 168 172 185 203
540 583 559 305 392 272 162 99 97 204 316 165 125 144 170 211 191 243 292 308 327 348 340 315 325 280 293 301 320 282 255 199 198 215 198 186 184 152 157 190 184 187 202
484 510 504 384 243 226 244 200 264 215 232 245 278 277 258 256 255 305 335 348 385 373 360 356 364 328 426 396 308 247 244 229 207 211 204 191 175 162 169 167 196 181 196
443 431 376 300 243 272 274 314 311 293 303 300 306 328 361 336 329 375 413 421 413 387 385 441 479 459 417 379 344 297 246 245 221 205 194 184 166 164 197 197 212 228 245
351 324 320 373 370 347 373 356 335 321 365 361 350 384 381 372 374 390 418 415 412 444 458 436 412 379 339 298 276 247 230 199 169 177 180 175 186 178 180 186 207 247 269
373 354 391 401 397 376 362 331 390 385 388 387 388 390 424 375 409 449 492 500 513 476 440 411 370 338 301 260 243 236 217 192 181 174 172 169 167 161 186 186 200 217 239
406 383 418 393 386 389 386 386 418 444 429 415 417 420 429 433 453 460 464 457 458 452 413 375 333 300 272 227 230 231 203 182 170 171 146 120 122 137 151 199 221 255 251
356 337 359 337 357 395 436 456 428 413 458 473 491 449 453 448 406 402 404 418 437 404 375 336 313 297 276 253 222 213 203 181 165 146 135 124 114 116 110 177 211 241 250
441 434 424 419 401 383 443 472 485 527 569 549 567 520 497 460 462 421 403 388 393 391 370 333 296 270 243 237 225 210 217 177 144 122 113 116 127 147 156 181 185 203 219
426 426 399 378 374 414 482 523 516 514 529 512 505 537 538 510 476 459 427 387 356 360 337 293 278 259 238 207 219 208 179 143 118 112 116 122 140 152 147 160 155 153 183
388 398 408 419 423 444 475 490 492 455 445 430 462 501 518 511 492 434 432 400 381 324 255 249 209 188 207 213 189 176 153 130 126 126 127 142 150 145 128 150 140 120 137
376 398 423 467 500 492 482 422 412 404 437 448 464 466 457 455 441 414 386 335 291 252 230 227 241 232 213 174 160 165 158 144 134 133 147 149 148 144 146 163 143 136 125
410 417 446 473 503 543 548 443 438 410 339 366 377 397 420 425 418 384 347 337 327 312 323 273 279 247 208 179 157 142 143 154 157 161 158 154 154 147 157 154 142 134 138
400 411 431 464 471 477 529 608 594 476 461 481 465 465 502 440 407 408 405 335 317 258 281 283 252 218 203 165 154 162 161 158 159 154 153 153 156 152 160 140 132 127 109
386 404 435 459 471 492 513 575 654 727 702 606 528 504 525 553 419 341 299 281 248 251 241 231 215 190 169 182 187 174 156 154 157 153 148 149 147 152 147 132 120 106 89
678 648 584 594 626 644 658 641 536 469 459 488 429 354 286 299 336 336 312 273 278 275 251 232 216 192 205 181 170 174 162 166 165 157 146 149 161 167 145 138 121 100 58
826 822 792 747 629 520 431 392 366 329 301 283 283 273 244 269 262 249 242 214 201 207 218 215 202 182 179 179 173 169 161 162 160 156 152 164 171 161 138 134 94 72 39
667 574 485 426 384 367 355 348 342 333 330 307 268 249 233 215 186 159 148 140 157 164 166 171 181 183 181 178 173 161 162 173 179 177 166 166 162 157 141 117 81 45 42
460 406 362 329 314 336 353 345 311 277 246 230 224 216 205 180 156 146 154 158 174 178 187 201 196 193 184 171 167 197 195 185 176 164 164 146 152 151 127 93 75 49 27
315 307 308 317 335 332 285 247 231 218 203 186 175 173 199 191 201 215 226 227 222 223 211 202 198 189 184 185 197 187 183 172 167 163 146 131 126 120 101 95 87 72 75
280 286 287 266 228 211 197 181 167 155 154 164 175 195 211 217 223 232 240 237 225 215 205 198 197 204 177 171 162 169 163 147 135 125 125 114 99 98 93 89 82 82 95
218 207 185 174 161 149 142 147 152 168 163 170 185 197 204 202 202 223 213 213 222 215 200 191 183 171 166 158 155 155 144 133 118 107 90 79 74 75 83 91 101 107 122
113 108 107 111 117 124 140 154 166 177 191 202 220 211 205 211 208 208 205 194 186 179 171 163 157 148 143 138 134 124 110 96 87 73 73 59 53 58 81 94 117 125 123
89 100 102 107 118 136 151 165 183 191 197 197 185 179 184 189 185 170 151 151 149 146 138 131 125 118 114 110 101 91 87 75 68 64 66 50 45 59 68 68 93 110 122

GFSGL_con_3kmhel_066.txt.gz
Helicity
261 260 235 215 181 141 89 45 34 32 20 4 -9 -46 -10 30 67 105 155 202 214 255 249 251 265 276 265 302 283 318 309 323 298 270 207 234 200 173 157 166 154 143 148
424 346 299 339 308 256 186 147 112 68 84 90 133 79 84 157 72 120 152 244 180 224 260 284 288 320 284 349 337 279 281 356 277 262 213 186 168 172 162 141 140 140 151
466 485 393 354 316 258 225 241 181 153 119 148 219 206 271 259 54 126 122 207 186 194 249 296 323 366 406 359 336 326 310 298 283 261 246 245 190 149 141 132 136 133 124
418 450 459 490 465 330 140 110 91 175 -85 19 165 131 197 180 106 173 184 213 225 255 274 316 343 359 365 349 336 358 341 295 287 261 240 222 192 148 150 159 148 121 120
358 393 430 460 437 336 143 117 125 120 -73 18 120 172 225 134 139 188 210 268 281 293 335 373 430 453 344 408 361 350 293 292 281 287 248 233 216 194 184 149 141 116 108
293 328 353 341 329 283 187 153 151 96 88 142 176 201 225 211 189 258 307 327 318 395 478 566 540 526 490 484 443 389 313 282 309 283 257 243 202 178 147 135 137 140 117
259 211 228 258 262 233 189 188 240 255 311 293 332 285 256 254 270 317 384 400 447 498 527 519 514 463 442 414 404 361 349 321 264 242 233 195 171 137 142 146 134 136 152
252 259 249 251 249 308 342 346 358 365 344 357 309 296 323 300 338 415 503 514 544 526 481 449 441 432 412 366 348 350 325 284 245 206 171 152 123 121 134 118 118 126 160
289 301 316 321 400 419 364 341 353 365 335 306 326 351 391 428 463 507 544 539 538 532 508 485 459 417 379 345 357 338 318 283 220 203 184 160 157 153 142 155 145 163 169
315 328 342 359 378 349 360 377 360 323 377 413 476 456 504 504 485 498 463 451 471 476 479 470 459 416 371 308 326 312 324 270 222 227 196 180 184 164 167 165 155 159 176
347 384 350 353 355 352 359 338 391 436 497 560 635 638 621 541 485 399 399 400 393 428 449 447 406 363 335 321 289 279 243 210 250 197 185 180 135 124 134 140 147 167 187
383 350 334 336 318 319 383 422 461 526 606 654 682 682 642 550 472 448 419 397 362 401 402 387 356 319 294 293 284 227 294 252 233 235 202 160 130 116 115 124 126 143 168
318 336 339 360 351 368 412 454 481 496 574 576 525 485 484 468 455 434 426 411 391 423 386 355 330 302 293 334 323 357 318 275 213 206 179 146 118 116 107 120 129 123 122
328 324 313 357 386 395 407 407 434 445 423 359 396 426 418 419 431 430 429 417 412 408 375 374 390 411 414 358 340 304 242 232 219 193 149 139 123 120 133 134 147 153 154
272 291 336 363 392 457 486 410 332 277 231 268 301 343 382 393 386 390 401 425 434 430 428 389 343 309 304 290 258 254 255 243 204 185 175 145 144 153 144 141 151 152 155
230 245 263 302 316 341 365 434 452 362 371 395 437 484 505 487 459 423 395 386 364 310 293 287 283 303 273 251 256 240 239 214 196 174 168 164 160 158 146 145 146 151 159
356 340 330 347 360 413 474 531 592 581 566 491 497 486 434 366 338 338 321 274 270 255 269 276 261 255 249 241 236 217 194 180 177 174 170 162 149 156 151 158 151 150 149
520 543 546 523 571 611 598 558 476 441 436 403 378 340 343 344 337 303 266 256 261 250 227 227 222 211 209 209 205 203 192 179 180 178 167 163 163 181 174 168 163 156 126
580 582 585 541 563 544 467 408 340 293 273 267 260 300 316 327 330 308 290 224 200 178 174 178 183 192 206 205 201 189 177 171 171 179 187 180 179 180 167 162 145 117 100
611 597 630 500 504 437 365 326 297 270 251 261 294 307 279 253 231 194 161 137 137 156 173 175 193 213 206 191 182 171 175 170 180 193 195 187 181 174 156 143 132 106 100
477 488 450 429 366 309 286 283 280 298 318 312 290 255 235 195 174 156 145 162 183 190 202 223 215 198 185 178 169 185 189 194 194 194 184 169 167 159 143 118 108 95 74
345 346 310 298 275 281 278 267 260 243 223 208 197 216 224 194 202 206 214 215 219 224 214 204 204 204 207 203 195 194 194 197 198 185 170 160 140 122 123 114 105 101 72
223 226 227 228 216 217 218 204 195 187 186 189 184 185 195 194 197 204 212 219 216 208 199 194 201 195 190 185 177 172 177 170 159 147 138 125 115 108 107 103 92 85 75
186 183 172 164 159 160 162 164 163 179 185 198 198 191 188 185 187 203 201 191 181 177 165 160 154 145 150 148 146 144 131 123 109 104 93 90 86 85 84 79 74 67 72
116 122 130 131 134 136 152 168 179 183 182 179 186 172 172 181 182 165 138 123 126 124 122 121 120 111 104 97 88 80 80 72 75 68 71 61 57 54 65 65 65 63 75
101 116 122 127 138 142 137 145 154 158 160 154 150 146 139 134 121 108 103 99 96 91 87 84 80 69 62 56 52 50 55 46 49 46 53 49 50 53 56 44 40 43 68

GFSGL_con_3kmhel_069.txt.gz
Helicity
217 204 184 183 174 148 98 49 45 44 17 1 -20 -29 -39 -20 9 23 9 18 38 80 177 212 163 133 242 267 262 283 284 257 258 317 256 281 261 238 246 224 227 195 171
329 304 213 191 220 230 182 176 160 166 166 153 129 96 82 75 126 114 70 61 103 100 187 167 132 260 262 296 321 343 356 310 295 278 296 246 224 250 215 208 211 178 160
320 337 307 254 215 200 178 132 99 90 108 82 126 115 122 156 204 204 150 149 232 158 199 210 180 219 269 316 345 387 289 309 304 305 309 279 203 196 185 199 187 175 153
278 268 290 322 332 259 185 165 152 132 170 156 196 90 98 148 185 220 189 250 177 167 222 195 239 262 288 307 339 344 384 340 347 326 301 227 181 204 214 228 204 177 147
232 211 211 235 268 248 211 166 130 110 147 178 221 104 -91 39 196 234 234 170 205 218 236 254 267 266 286 332 421 380 399 346 345 304 274 254 228 245 261 246 206 186 141
164 137 107 148 184 193 203 197 156 116 96 123 157 63 84 170 233 240 257 227 240 308 369 399 395 464 514 547 500 486 397 350 331 298 269 255 252 254 233 215 195 191 207
150 111 111 129 140 125 109 123 135 114 102 121 139 147 170 183 190 208 253 251 313 344 447 528 543 569 600 540 562 546 507 470 395 302 281 283 272 250 230 205 178 214 174
152 134 142 150 130 125 134 126 105 87 113 159 171 174 217 246 230 292 341 374 432 462 508 549 561 525 478 447 448 448 412 377 330 309 294 287 232 208 162 161 202 171 137
168 179 165 172 141 158 168 213 297 264 258 263 265 271 280 251 297 394 464 493 562 587 612 560 470 462 415 382 382 365 349 357 320 291 255 231 215 192 190 220 214 204 186
152 139 155 179 164 256 325 328 296 298 294 292 311 275 269 334 370 429 479 540 633 657 614 572 461 380 360 317 317 341 362 333 279 251 234 218 202 184 241 211 228 213 192
245 289 316 325 338 341 349 356 358 366 380 401 439 415 401 416 426 453 470 525 583 546 484 407 388 323 309 345 354 361 351 305 298 274 257 292 256 288 256 253 222 193 152
357 312 301 311 293 322 360 368 365 397 428 462 498 563 559 551 562 575 624 525 372 324 367 314 304 308 364 374 374 356 343 307 286 331 336 306 298 260 256 243 164 143 134
354 331 292 309 326 340 391 373 412 389 467 515 601 691 709 758 730 642 459 329 358 354 319 343 331 327 334 350 345 331 298 330 312 262 251 244 260 259 198 171 136 129 131
259 263 284 287 347 350 324 309 335 368 427 474 472 574 574 514 390 336 376 406 393 395 357 327 317 347 375 328 265 262 228 207 215 221 227 240 208 171 148 147 155 158 155
212 212 246 256 279 333 373 321 314 308 274 321 350 385 410 348 350 358 359 373 364 347 347 324 273 230 205 209 227 235 220 204 196 202 189 162 154 154 161 165 169 173 168
213 213 224 247 300 354 402 497 477 374 357 368 374 411 399 367 339 335 322 303 274 257 231 201 229 230 242 240 217 201 190 186 192 175 166 167 175 184 193 190 178 181 173
256 292 359 367 376 422 475 490 511 477 444 380 371 351 336 307 299 274 245 197 208 215 231 238 240 230 217 211 206 199 194 191 183 179 186 196 203 211 207 204 194 182 207
429 432 429 425 423 445 443 399 365 400 474 441 386 310 280 249 215 195 216 228 246 240 229 218 212 201 196 193 190 191 193 193 196 200 203 209 213 217 242 241 234 214 186
403 432 452 508 486 450 456 436 377 336 347 317 284 289 269 285 301 307 273 232 222 212 201 191 184 177 184 191 201 202 204 206 209 211 225 232 241 248 245 223 202 183 164
526 561 527 557 493 505 427 364 317 289 266 254 252 245 241 249 261 251 232 207 196 199 193 185 190 206 216 215 213 211 209 213 225 235 243 236 228 222 214 200 175 154 129
394 467 390 416 354 301 311 274 255 242 236 246 263 265 260 230 224 207 192 195 193 197 201 209 218 227 219 211 205 221 215 207 205 211 215 222 222 206 173 153 136 114 93
290 297 292 260 225 246 238 233 236 238 241 236 233 243 232 187 178 180 192 208 220 227 226 222 211 197 186 192 188 183 178 181 185 187 188 179 163 148 134 117 104 92 76
190 202 213 216 201 201 196 184 185 187 193 193 188 189 198 205 216 226 228 218 204 192 181 171 165 165 152 148 144 140 143 147 147 140 136 122 106 98 94 84 79 72 57
144 142 138 139 135 137 142 148 159 187 184 191 196 202 202 200 195 191 174 160 149 141 129 132 125 121 122 112 105 98 90 88 82 73 63 64 62 62 60 54 50 40 29
93 99 111 113 119 124 139 162 172 174 178 176 172 165 160 166 159 150 140 130 122 114 110 100 97 92 78 67 53 46 49 46 46 40 42 34 35 31 35 37 33 21 13
107 120 124 131 144 149 148 157 162 164 166 156 145 136 127 123 123 119 111 102 98 89 84 82 71 61 49 45 40 42 32 23 23 22 32 36 38 38 35 24 13 13 27

GFSGL_con_3kmhel_072.txt.gz
Helicity
96 105 104 93 84 94 122 128 125 109 129 150 139 113 80 40 15 -12 -12 -7 -19 54 90 123 124 125 212 240 228 138 233 273 288 317 363 319 347 233 252 244 244 198 196
107 118 97 107 105 105 105 104 136 135 114 128 104 89 79 95 133 111 82 93 105 83 113 144 153 179 157 202 219 172 323 289 341 382 407 322 267 242 315 257 202 194 215
149 156 159 134 128 137 111 121 109 99 91 84 62 56 47 58 61 129 165 112 99 146 154 133 126 139 169 237 195 288 319 326 350 372 344 341 348 342 283 229 180 225 206
157 178 182 186 180 142 119 118 134 125 119 125 123 117 98 93 145 187 274 243 202 250 247 267 241 222 244 227 287 297 346 363 290 348 320 358 311 275 260 237 208 214 227
103 126 145 142 137 120 102 101 107 115 125 124 115 112 127 185 287 260 237 108 224 265 275 266 234 280 250 269 310 325 350 402 462 346 332 363 316 297 241 239 255 245 204
90 83 81 80 81 92 107 121 111 122 121 124 125 102 134 196 257 223 114 88 202 273 284 288 274 263 281 318 373 451 463 492 414 410 362 347 288 338 286 266 273 261 274
92 83 80 68 54 43 52 88 112 124 152 160 132 76 74 89 178 148 116 133 228 267 329 397 435 462 538 604 702 705 681 572 435 371 368 371 350 314 281 273 259 270 269
80 105 114 106 96 85 77 77 96 110 115 151 150 121 124 173 157 99 140 226 355 344 389 431 497 559 592 683 725 703 632 450 355 391 364 353 343 305 273 272 287 284 235
84 114 139 138 144 128 114 115 151 150 173 179 197 224 219 255 208 250 375 428 474 482 476 478 531 582 556 620 634 439 309 328 402 450 445 415 363 333 291 313 293 276 253
117 127 151 177 160 154 140 210 327 284 295 335 342 296 265 261 258 362 445 449 484 525 558 597 629 545 632 417 446 385 362 247 296 301 319 291 232 290 261 256 272 228 212
115 112 137 164 158 248 378 315 367 375 402 384 376 362 335 319 404 442 414 428 502 605 681 732 712 726 575 414 343 294 323 305 352 303 308 314 289 252 240 218 218 228 217
247 316 309 320 312 313 364 380 364 355 385 399 405 448 458 472 503 487 481 489 508 610 627 627 531 385 288 322 347 373 404 343 322 352 319 258 241 251 216 208 204 203 174
181 267 290 349 368 347 403 352 433 353 400 486 450 471 524 532 550 513 538 598 617 695 497 400 208 238 294 325 323 359 396 381 282 257 251 245 237 232 210 187 176 156 144
224 292 387 363 413 384 367 394 373 382 434 486 474 502 536 581 578 575 572 582 625 478 286 217 214 272 362 358 310 242 260 276 272 260 242 233 211 196 191 184 173 169 179
307 332 408 462 506 532 489 443 415 413 375 400 435 453 445 473 467 456 426 382 301 265 261 237 259 260 210 197 219 219 222 221 232 232 218 204 191 175 165 171 173 187 200
304 314 370 375 357 378 433 533 545 527 468 425 405 395 410 400 386 356 319 312 292 241 231 219 198 176 162 163 175 181 189 198 213 194 184 182 180 179 182 199 198 205 228
379 352 331 362 369 429 470 485 586 600 575 440 375 362 352 333 336 306 278 271 245 200 193 178 175 177 182 185 208 226 232 224 184 167 177 183 196 209 218 227 240 249 265
205 437 459 439 488 503 476 440 465 448 499 439 410 372 314 297 291 282 252 219 223 230 214 214 227 226 227 227 224 216 198 192 191 207 219 231 235 234 260 265 276 285 276
307 340 342 447 476 471 471 495 442 385 408 418 404 408 390 371 315 265 215 212 198 199 201 219 224 226 222 209 210 202 209 213 224 212 227 228 235 252 256 264 271 252 233
401 445 375 380 417 385 448 403 298 262 239 245 253 234 183 174 201 210 212 211 223 223 217 216 210 202 197 201 203 206 207 212 214 213 229 226 217 218 226 234 230 227 217
263 324 343 352 340 335 313 268 254 239 223 222 236 260 261 210 213 223 222 231 223 211 209 202 197 200 196 189 184 185 174 183 181 186 186 181 188 196 190 184 175 165 149
224 237 237 245 236 241 234 216 203 202 195 197 209 239 250 219 208 205 200 195 198 199 192 187 181 177 164 162 154 154 145 140 134 131 132 132 127 125 128 125 118 105 95
164 167 175 186 187 192 202 202 191 185 188 191 187 191 195 197 200 190 187 181 174 170 170 164 152 144 132 120 109 99 100 98 99 96 84 75 72 73 76 72 64 58 55
115 122 129 141 151 154 156 161 175 208 190 189 195 193 188 179 174 174 169 161 151 139 129 126 109 100 110 93 76 73 75 78 74 59 39 39 44 45 47 43 40 33 33
104 111 127 137 146 152 158 171 175 178 178 175 166 161 153 144 139 135 128 120 116 107 102 80 77 83 72 73 55 53 59 57 46 38 36 27 25 24 32 35 31 25 15
135 141 142 144 155 159 163 167 167 158 168 148 136 127 125 118 114 109 109 106 111 98 86 79 66 60 53 51 53 70 54 39 35 27 29 29 31 34 33 25 13 17 4

GFSGL_con_3kmhel_075.txt.gz
Helicity
85 74 65 84 68 67 90 93 115 124 149 184 219 229 233 210 96 27 21 25 28 52 68 91 103 102 127 146 214 181 233 286 269 279 242 274 252 274 340 302 286 279 245
116 122 99 86 98 98 88 110 125 130 145 148 203 196 192 170 133 76 91 127 105 79 92 89 98 140 127 189 235 257 272 247 204 204 297 323 424 295 320 269 285 289 226
114 136 136 140 147 154 153 131 126 136 146 148 130 156 159 161 136 114 104 96 109 124 148 158 159 198 254 323 329 296 247 222 247 262 319 462 474 318 433 370 382 283 274
123 141 158 184 206 204 193 168 158 157 166 165 170 153 163 164 137 133 133 136 146 145 152 198 224 310 305 409 481 384 458 333 206 232 442 404 402 482 442 326 310 296 266
128 154 176 221 221 197 209 210 196 184 200 189 193 186 174 175 183 171 179 194 217 211 242 309 307 290 310 378 369 223 288 270 320 329 465 524 449 505 358 349 332 287 302
144 122 135 136 149 185 200 221 216 214 222 254 238 247 249 235 212 219 229 303 366 344 315 262 198 210 245 274 326 352 383 392 421 421 520 686 449 456 344 346 389 358 317
128 89 104 109 122 146 157 168 188 212 226 230 256 284 290 258 288 309 276 274 236 230 238 188 225 289 330 424 484 534 583 556 483 613 630 646 486 286 362 318 363 350 314
111 96 114 139 129 128 128 130 137 143 170 209 221 237 234 236 281 307 241 181 164 257 263 304 362 401 471 555 649 682 726 877 741 750 748 877 445 352 305 322 360 343 317
134 138 138 153 174 189 170 167 178 171 174 171 162 168 178 197 287 276 265 345 431 505 514 478 447 473 508 561 625 649 647 680 825 697 511 317 340 447 390 325 298 314 333
93 141 121 126 157 213 214 192 230 234 234 313 415 393 379 336 316 292 383 462 483 515 531 498 460 476 576 570 643 590 677 704 459 540 297 323 245 240 261 294 342 306 296
111 124 123 133 172 168 184 241 297 486 605 563 553 470 410 326 384 410 416 460 493 545 556 586 627 708 736 786 759 724 737 485 344 240 165 193 219 249 262 235 284 317 308
225 260 232 219 323 322 474 605 611 553 572 604 630 554 483 421 389 492 480 445 451 513 541 599 645 714 704 668 659 599 409 322 216 251 252 238 230 226 249 263 261 250 242
221 272 341 437 522 531 369 409 480 483 528 529 474 525 420 468 498 501 497 514 515 557 563 559 605 626 600 484 417 341 238 227 195 190 215 224 264 298 281 245 226 215 213
313 299 302 373 461 527 528 524 515 460 403 400 471 523 612 556 476 523 536 582 698 628 557 537 540 476 431 354 246 243 234 226 213 214 216 244 258 251 248 245 240 231 220
280 406 442 441 439 469 500 465 408 456 380 468 586 389 441 418 451 493 460 497 483 397 392 374 327 215 168 193 223 203 179 174 197 227 241 255 261 257 233 210 189 183 182
138 278 398 450 477 591 597 714 713 597 455 440 568 427 507 546 565 473 429 396 345 319 278 226 204 209 200 172 167 177 176 191 239 248 240 233 216 204 196 188 182 175 189
100 64 74 321 361 362 234 342 507 534 542 646 575 550 524 432 554 505 425 368 277 235 269 267 251 230 203 212 225 240 246 238 193 195 198 196 193 198 199 196 199 208 230
47 81 117 125 304 421 429 455 489 569 671 706 697 590 524 447 335 276 255 239 270 275 239 213 201 203 210 215 221 232 227 217 190 196 183 181 178 181 190 202 224 256 270
166 142 149 174 204 193 275 326 334 353 368 359 334 338 285 285 290 296 251 202 192 194 192 209 225 222 225 212 203 194 179 170 160 131 148 159 191 185 188 195 206 218 230
338 339 282 298 273 263 294 294 266 265 283 286 246 203 188 215 248 269 271 243 231 225 217 208 204 202 194 181 162 148 136 144 158 164 169 156 149 164 174 180 184 194 190
227 228 253 284 310 298 304 310 284 286 292 301 319 316 277 221 214 211 213 221 201 196 203 171 143 144 154 157 160 163 153 146 139 131 124 130 137 134 122 111 104 110 113
214 210 194 186 169 172 169 157 151 152 155 165 179 208 213 186 174 164 163 160 162 168 173 171 177 167 162 148 138 128 120 127 123 128 129 120 103 89 73 66 68 69 63
156 158 159 160 169 189 203 194 175 179 180 182 179 177 180 178 172 162 166 169 158 152 148 151 142 136 131 127 104 101 106 119 113 101 86 73 61 57 58 50 45 43 41
119 128 133 144 157 162 167 173 177 199 184 179 177 177 175 168 158 159 153 143 138 130 125 124 117 126 124 103 99 92 78 90 82 70 58 52 51 52 50 42 35 25 30
124 128 136 142 149 148 154 166 174 174 176 174 164 153 140 131 125 123 117 113 113 118 118 105 111 109 100 96 67 56 77 91 70 55 51 39 33 28 29 27 24 24 20
127 134 134 136 144 146 144 147 151 149 147 139 132 123 115 108 109 103 106 117 116 101 102 101 87 87 73 59 69 112 85 56 46 44 46 38 33 32 29 20 9 19 10

GFSGL_con_3kmhel_078.txt.gz
Helicity
194 184 132 122 119 121 108 176 195 201 215 212 276 254 223 182 134 178 226 207 159 108 114 146 73 115 138 159 204 210 210 262 295 281 310 334 310 298 358 329 291 276 321
169 204 174 152 149 145 149 161 173 168 178 184 199 229 237 257 230 238 258 234 203 145 132 125 134 147 143 172 234 234 273 331 374 297 376 364 321 350 420 384 331 324 295
156 190 199 187 192 177 170 182 173 187 189 193 193 249 257 238 276 247 256 268 212 143 121 109 125 152 180 210 220 274 348 439 419 357 423 437 485 546 470 412 340 327 310
118 166 192 203 227 202 181 197 226 222 228 223 232 228 222 214 231 235 220 201 189 165 162 189 171 157 146 180 236 316 388 391 299 459 420 521 453 423 399 347 394 472 429
122 127 175 206 190 199 217 249 254 268 270 239 257 253 265 265 272 265 253 238 219 207 219 221 250 225 311 260 220 281 349 293 274 306 346 402 453 476 402 439 463 557 417
219 153 180 218 217 207 228 269 282 290 281 298 320 325 317 310 325 321 309 284 258 246 245 266 316 327 373 390 377 368 331 300 265 380 352 422 391 468 471 592 691 683 506
192 238 226 227 224 201 228 247 258 307 307 299 306 325 329 327 337 349 332 309 275 268 298 306 353 364 340 363 384 386 372 469 569 419 445 515 575 700 868 730 707 904 489
144 198 247 244 229 200 217 215 222 260 289 303 289 282 273 279 312 349 348 313 280 341 366 298 268 332 366 387 429 528 624 650 626 731 799 702 575 704 637 487 462 357 262
129 103 197 236 199 184 194 213 226 253 258 253 235 214 201 205 226 278 355 330 392 529 491 457 445 485 431 425 495 588 616 709 735 826 617 693 731 653 613 545 439 276 212
248 215 186 180 218 206 225 249 219 242 238 245 226 280 264 256 318 291 351 539 602 599 561 516 464 458 451 419 487 537 606 563 566 654 691 787 587 461 378 197 179 206 266
193 215 163 267 189 200 190 223 247 228 322 469 530 561 549 495 484 403 464 510 566 632 618 615 568 548 560 552 549 569 592 560 622 609 627 510 424 307 180 209 268 270 292
100 113 144 271 382 347 312 475 484 539 577 623 665 652 649 590 539 490 477 495 513 600 595 601 566 576 581 635 667 649 637 600 600 645 428 329 248 233 274 292 279 261 261
35 75 124 211 343 460 552 587 564 550 584 581 653 625 596 593 504 440 412 494 512 530 635 665 732 814 832 690 618 603 543 479 377 348 315 255 251 245 240 209 198 195 240
-85 13 93 176 284 436 473 518 535 539 539 588 658 641 627 621 663 605 565 474 593 772 782 712 663 652 672 713 592 425 376 339 318 221 185 179 175 175 184 209 205 210 207
5 -16 8 98 170 346 434 520 452 438 367 449 587 641 761 833 662 737 679 665 690 583 600 621 550 426 374 416 418 212 225 184 171 157 164 165 163 172 183 195 204 219 222
37 75 42 103 194 220 482 617 803 713 722 618 415 579 392 477 721 352 513 567 492 410 568 531 316 260 312 260 163 119 125 149 129 118 126 148 173 193 201 193 193 202 210
92 67 6 1 84 155 225 383 656 830 887 854 856 589 459 638 626 451 428 492 431 336 367 338 297 250 226 201 185 141 106 93 128 167 189 194 184 182 182 183 194 207 220
136 176 128 135 141 167 147 176 245 282 394 576 638 600 554 463 466 387 436 441 359 303 237 220 214 195 167 163 168 176 174 169 174 169 170 179 185 187 185 182 174 191 197
161 157 162 166 212 232 250 199 171 198 236 273 289 380 382 419 422 394 327 256 218 224 222 230 216 213 198 186 173 165 167 168 171 183 197 190 169 155 152 142 138 144 151
238 248 223 206 205 187 190 162 162 208 238 239 192 195 200 236 254 258 257 239 223 190 185 187 182 186 189 187 182 188 202 209 192 168 146 137 123 104 100 98 100 95 98
171 201 214 176 178 179 186 192 188 213 217 213 189 171 181 162 173 195 209 225 222 219 216 180 182 199 207 210 201 187 166 153 140 129 120 111 100 101 89 82 83 81 75
142 163 186 195 179 182 178 172 169 176 174 178 183 199 188 153 158 155 157 162 166 207 220 231 203 183 174 171 155 146 140 134 127 116 115 105 96 89 84 79 72 66 62
93 115 125 125 128 141 149 143 135 132 136 137 137 137 147 160 163 168 176 156 134 132 147 163 143 145 142 143 145 143 134 137 126 119 119 101 84 82 73 59 53 52 51
107 108 97 109 136 143 142 134 130 146 132 127 128 129 136 128 121 133 131 131 135 106 103 107 105 106 109 119 100 98 103 93 92 102 110 88 72 58 53 48 45 43 48
129 128 139 142 136 137 144 166 168 159 157 155 150 143 134 126 115 96 83 98 106 106 97 96 100 105 107 82 78 134 122 103 84 68 65 58 42 38 40 44 44 27 20
136 143 140 135 142 141 141 140 134 131 129 122 119 108 107 104 103 86 94 94 81 73 97 98 109 106 90 100 130 93 69 61 55 50 60 52 52 48 38 33 28 33 30

GFSGL_con_3kmhel_081.txt.gz
Helicity
225 172 172 173 153 150 175 154 154 143 158 188 218 265 312 280 276 205 188 167 124 149 172 187 176 244 219 176 180 177 171 195 176 153 179 243 312 327 316 297 290 294 255
252 231 172 145 142 163 205 197 176 156 150 165 172 165 208 276 271 221 240 229 204 218 262 325 282 254 244 214 204 168 160 188 227 180 221 298 339 399 405 438 422 301 417
272 259 227 200 187 193 182 200 220 203 185 167 162 187 225 224 238 226 223 210 214 204 227 236 229 222 212 223 201 168 175 211 271 298 260 316 331 450 473 508 599 567 532
247 249 255 256 238 217 204 176 186 235 234 268 280 229 216 236 239 242 221 175 162 186 228 245 237 240 240 231 254 262 275 287 277 263 246 264 347 374 325 420 477 473 456
252 263 241 277 279 271 251 246 239 250 267 281 282 283 262 265 256 249 248 251 234 229 236 257 262 287 303 280 316 265 285 356 327 284 210 263 455 504 448 437 413 367 463
214 269 305 315 304 336 343 338 324 319 313 315 344 344 323 310 309 315 287 282 270 247 241 247 256 258 255 264 285 284 334 351 375 322 277 324 410 424 357 487 497 531 462
154 100 209 294 333 364 387 367 323 310 340 364 350 348 357 335 339 364 351 304 288 301 285 279 295 312 306 298 364 450 540 549 509 334 285 310 462 554 627 705 689 685 643
171 165 230 136 204 339 410 409 386 325 308 331 328 349 329 325 360 355 357 316 303 298 290 292 316 342 377 453 493 501 497 484 436 406 432 497 628 697 821 730 712 620 693
82 140 157 136 172 149 306 351 395 382 334 315 293 295 330 294 300 301 340 311 293 295 433 463 384 457 462 520 556 536 503 487 539 543 598 697 694 757 761 723 728 720 727
130 112 86 89 113 124 194 224 348 352 300 329 318 289 285 250 308 255 303 315 369 522 574 545 489 476 511 576 612 645 663 638 682 759 790 820 848 822 719 661 643 507 582
102 95 62 24 90 137 130 192 200 338 310 322 421 515 505 441 389 293 257 375 440 551 580 587 605 549 600 605 594 630 677 710 673 669 706 715 657 702 656 546 410 386 283
9 21 45 21 -3 96 192 200 332 296 464 531 593 600 569 539 496 449 512 502 504 666 767 748 703 688 651 645 631 674 785 879 801 703 631 660 636 475 509 379 307 229 201
34 9 -5 5 -13 -17 130 268 272 353 410 570 616 652 647 652 599 637 645 697 788 948 972 941 1028 1094 1012 1216 893 773 769 669 573 539 542 437 387 330 222 189 170 182 186
32 42 54 53 -3 10 -3 136 275 322 345 454 601 686 715 758 777 813 890 1005 1232 1378 1384 1162 1151 949 1020 636 582 513 520 457 361 324 268 215 204 144 140 128 141 161 159
74 74 62 52 74 13 5 26 86 299 297 337 395 501 551 833 657 577 608 477 792 650 707 700 747 568 495 489 562 472 326 258 254 203 182 177 166 159 169 174 174 175 185
151 118 84 70 74 76 93 146 283 215 235 457 625 453 457 362 422 509 593 546 467 483 525 614 408 354 319 317 312 232 208 166 138 147 164 166 166 163 167 180 194 202 215
221 132 87 86 73 77 80 104 94 278 380 362 349 552 552 602 450 566 536 554 418 357 356 329 285 252 218 160 126 137 151 147 139 140 137 144 155 168 172 181 190 205 213
175 194 152 148 153 145 129 131 144 203 255 324 407 326 408 280 294 258 265 349 368 324 258 216 180 177 170 157 138 119 106 103 122 138 151 157 161 172 180 193 195 186 197
181 192 190 214 210 193 166 215 208 208 201 215 216 285 263 323 304 314 267 247 232 230 211 218 203 197 179 167 163 155 149 156 147 164 170 178 174 160 174 161 150 167 161
207 190 158 146 157 168 174 186 185 209 219 203 206 207 204 252 283 268 269 259 248 222 203 205 202 207 202 194 192 173 175 179 174 172 170 166 163 148 156 146 138 129 117
152 163 176 178 180 170 171 180 167 160 157 160 164 168 191 174 184 197 198 215 209 205 184 170 177 191 197 195 185 178 178 175 165 151 146 137 132 134 123 112 95 81 74
138 140 150 150 141 154 150 144 141 136 131 129 128 144 163 157 152 149 155 162 172 182 162 159 172 175 174 180 183 169 164 161 150 131 122 116 123 122 100 83 79 68 64
106 120 130 135 138 151 157 145 138 133 129 125 116 118 124 129 138 155 164 148 146 136 117 111 111 124 129 137 135 121 126 114 99 93 113 113 106 100 89 77 72 79 82
154 152 149 151 155 163 172 171 164 165 150 148 130 117 102 93 84 104 106 112 109 106 84 79 87 104 94 102 103 93 83 77 67 70 80 96 86 79 82 84 89 75 59
163 163 171 171 166 170 173 165 154 150 150 136 109 101 98 73 85 98 95 101 121 110 92 88 69 73 92 112 108 104 91 83 75 73 76 85 85 84 84 73 62 60 62
125 133 130 124 124 114 116 132 126 103 107 116 100 92 81 92 85 72 84 108 116 114 105 94 94 107 77 87 68 66 81 90 86 85 80 81 73 63 60 59 58 64 55

GFSGL_con_3kmhel_084.txt.gz
Helicity
193 204 181 163 160 164 172 174 174 155 124 132 126 104 93 91 103 120 141 173 189 183 196 188 105 221 251 249 221 237 265 289 182 183 231 190 204 213 199 203 182 254 274
174 178 185 167 140 168 175 146 147 164 161 163 146 152 142 138 128 148 168 192 226 208 240 266 246 297 282 293 280 212 283 316 303 248 202 238 233 249 256 198 217 318 323
232 183 163 183 165 142 149 156 139 136 149 159 171 172 174 166 193 200 225 228 226 196 211 217 232 257 237 275 293 320 335 284 329 294 235 197 206 307 268 308 346 313 347
221 237 245 205 195 182 200 230 214 197 188 193 187 195 194 192 207 216 205 210 224 238 240 273 284 289 266 261 286 294 281 270 250 245 221 212 240 331 301 262 304 345 326
137 198 255 307 300 244 186 214 261 288 262 240 247 232 222 235 253 250 246 229 221 221 226 240 254 292 293 295 325 271 252 248 244 227 221 230 297 513 392 389 290 315 330
159 84 95 115 216 292 328 344 278 238 254 292 299 307 301 299 281 318 308 286 263 228 214 209 221 221 205 277 315 281 288 269 206 212 186 174 224 376 398 418 394 446 377
212 220 221 230 128 99 203 250 307 346 327 278 276 285 299 313 323 345 342 314 282 271 247 226 199 199 216 221 225 255 285 352 335 233 224 211 247 342 470 529 487 475 551
219 220 198 174 127 159 202 120 221 290 364 399 372 358 314 299 335 360 369 298 259 235 244 233 227 191 207 237 278 299 318 403 406 420 417 425 492 600 591 559 647 688 749
229 221 214 205 215 169 127 121 147 143 265 340 373 359 359 349 363 362 391 341 319 287 277 257 254 234 249 329 408 460 552 527 463 479 609 689 731 641 528 644 614 694 710
169 147 126 114 136 166 199 147 91 114 121 229 289 353 361 308 287 357 398 363 347 357 339 438 457 350 285 407 425 504 626 703 839 989 1002 1096 943 911 852 626 610 658 656
76 59 54 50 59 74 104 119 103 83 118 150 219 497 594 553 432 474 296 345 350 375 421 513 515 508 622 752 762 743 869 1034 1047 1052 1058 1153 1178 1139 1024 927 920 686 648
35 13 5 11 14 13 36 66 117 109 73 145 327 510 596 582 566 444 448 385 472 572 619 614 611 665 776 869 906 923 997 1018 1102 1146 1130 960 904 797 647 559 379 406 366
47 24 10 12 39 42 50 76 91 111 83 111 185 339 455 535 525 556 589 586 614 820 725 780 907 1059 1157 1176 1183 1201 1260 1128 1099 940 741 906 633 437 489 352 277 219 226
42 47 35 23 25 73 54 72 89 80 110 106 122 215 313 334 326 391 547 731 905 908 1128 1202 1257 1243 1170 1033 1131 1068 1194 907 722 605 515 397 318 302 279 231 206 184 175
48 57 40 39 64 54 87 132 88 152 104 78 149 96 149 289 265 282 323 483 511 474 647 588 521 794 583 778 563 512 365 359 315 282 258 261 221 213 195 158 146 139 160
108 126 136 133 149 112 68 114 348 385 392 331 264 174 79 70 50 185 223 287 380 498 483 484 397 367 429 430 419 406 332 284 266 235 208 167 148 135 141 164 165 169 175
152 160 156 151 131 128 157 131 112 198 360 475 401 339 323 283 264 264 289 291 299 325 348 370 311 267 272 269 250 229 217 197 173 166 166 168 169 180 175 175 188 187 197
151 202 162 169 174 162 150 181 196 205 224 228 266 273 253 269 283 254 254 304 306 313 260 254 246 212 194 175 181 166 172 184 186 182 193 191 186 183 193 185 166 146 139
132 126 135 161 177 186 197 205 203 208 231 221 189 211 216 224 271 306 289 252 222 230 195 216 214 202 198 170 145 135 135 139 140 149 157 153 131 122 131 137 143 159 158
179 193 172 158 161 169 158 171 183 184 196 204 206 182 170 192 245 231 225 210 195 181 177 176 164 158 152 135 126 118 130 137 129 131 131 137 137 137 149 154 155 163 165
140 156 156 146 142 135 129 133 127 129 133 143 158 162 173 161 171 182 179 189 173 162 156 155 164 166 162 157 147 157 158 155 147 132 129 142 163 165 147 144 159 145 133
143 147 151 146 125 127 121 110 114 115 117 111 112 146 169 157 154 158 167 166 157 154 138 133 146 145 136 130 125 132 140 147 143 133 136 136 138 153 151 140 139 131 108
127 127 140 150 148 149 155 151 143 137 134 135 133 135 144 150 156 152 148 131 117 118 113 107 103 112 115 119 115 104 109 103 85 85 114 125 130 130 122 115 101 93 85
137 146 146 154 162 158 158 157 151 152 137 132 125 118 106 103 101 102 103 90 94 92 74 67 74 84 77 91 96 93 82 77 80 85 84 99 110 109 105 97 96 80 66
141 146 151 139 137 131 135 135 127 119 116 115 108 94 103 113 118 116 117 125 119 109 106 97 84 91 98 104 100 103 95 94 91 86 83 101 108 113 99 83 80 74 72
136 132 124 112 113 112 109 122 123 110 97 92 87 80 83 83 85 82 88 99 99 94 96 90 76 57 64 61 64 67 78 89 89 86 83 85 91 93 88 84 85 78 68

GFSGL_con_3kmhel_087.txt.gz
Helicity
152 143 126 130 124 110 83 49 38 22 58 102 90 73 82 68 75 116 116 143 170 141 111 156 220 271 244 237 228 246 208 268 232 115 171 206 213 218 226 229 208 201 194
149 138 140 130 125 131 136 111 93 79 57 60 78 102 90 99 123 114 111 146 180 132 150 155 147 271 258 318 353 249 188 199 267 206 253 265 294 274 268 243 278 289 280
113 148 150 160 165 155 131 158 166 131 100 92 96 95 93 114 138 168 155 148 183 189 189 202 222 241 205 221 263 275 295 324 326 322 238 274 289 296 291 288 281 238 243
93 142 158 156 183 166 143 131 127 138 146 140 131 131 136 133 129 128 158 160 156 184 209 211 212 240 245 255 289 277 304 312 308 319 296 219 231 293 312 215 189 235 211
84 88 92 114 136 190 206 171 169 149 165 186 182 167 179 186 203 192 192 194 183 180 202 226 259 281 254 239 265 240 279 300 289 267 261 240 207 268 265 193 190 203 201
344 265 146 86 87 100 140 175 187 202 219 223 224 239 250 264 232 273 288 246 228 226 209 209 226 233 218 247 297 254 266 304 279 278 273 250 227 260 273 282 265 270 288
228 245 241 231 229 271 219 111 132 161 193 216 236 262 274 283 293 333 352 319 296 279 241 211 204 226 221 222 221 231 228 277 294 225 206 213 224 252 261 294 274 273 271
273 278 253 223 198 185 179 177 200 199 110 188 218 263 280 286 305 373 406 354 312 302 308 287 253 212 227 256 258 250 243 228 234 249 215 173 198 323 350 347 335 514 719
213 242 253 242 210 196 195 179 164 149 138 123 116 180 255 265 292 325 407 383 363 321 304 292 302 284 244 287 293 262 249 407 496 439 500 557 535 518 482 524 606 757 866
139 149 165 176 175 180 157 139 129 126 129 128 119 176 347 393 553 558 314 306 295 317 318 375 304 321 318 342 359 324 344 480 566 568 558 682 696 744 807 725 703 726 810
64 45 50 79 86 109 114 108 103 91 91 100 110 158 246 344 340 378 398 350 309 295 359 290 471 524 524 534 366 319 437 700 750 820 798 798 834 942 956 831 824 796 867
66 45 43 39 35 43 73 102 111 101 73 86 103 110 151 188 309 292 241 293 363 393 394 542 607 723 663 565 646 853 900 1011 991 934 926 922 921 862 905 887 837 805 769
67 64 58 54 71 85 104 118 104 99 84 76 70 98 145 163 146 186 205 228 271 376 678 873 886 901 829 822 909 912 936 923 959 1090 989 1024 670 714 575 554 481 438 393
79 87 77 66 80 158 164 177 198 186 146 136 116 115 146 181 214 156 142 83 208 221 297 383 388 401 417 431 504 566 566 464 404 380 357 382 381 353 310 283 280 247 256
85 77 66 33 29 78 202 247 237 296 218 144 158 151 145 188 239 270 253 193 163 208 204 303 416 454 438 505 621 640 668 625 584 499 471 390 358 329 321 258 226 216 211
72 82 88 78 92 98 96 129 287 326 380 373 334 203 204 236 267 333 335 310 302 287 335 398 390 484 534 436 406 360 446 399 348 294 273 231 206 190 165 154 132 135 140
81 77 81 97 117 117 128 124 92 95 229 307 304 285 275 242 236 213 244 288 258 260 277 282 264 269 272 296 273 257 215 190 152 142 132 125 103 95 104 106 111 108 124
138 158 128 129 129 125 117 111 120 173 195 217 237 262 257 258 270 266 236 276 257 240 177 164 162 160 166 165 150 123 120 124 123 120 122 117 113 109 106 118 138 145 142
135 143 144 143 146 139 144 163 155 153 162 169 191 214 218 213 254 285 263 218 195 197 172 171 155 145 135 122 116 111 112 118 111 108 103 103 116 118 134 135 132 146 140
160 164 162 158 158 160 153 154 164 175 186 194 214 196 160 170 231 215 208 183 175 159 145 144 141 134 122 115 113 110 124 136 134 131 129 122 120 122 121 121 120 128 125
140 154 150 148 149 143 150 156 137 130 129 139 150 160 165 137 151 170 174 183 166 158 148 144 151 151 147 141 136 141 132 127 122 113 113 112 114 112 101 101 113 111 109
120 119 124 123 118 124 111 106 108 112 119 118 117 148 175 158 155 150 149 147 138 131 115 113 127 128 119 109 94 104 116 119 112 97 96 96 97 104 105 101 101 99 90
112 113 116 116 109 114 119 113 111 107 103 111 117 130 141 133 128 119 116 116 106 105 96 91 92 103 106 106 101 86 81 76 68 60 76 92 101 108 101 105 105 112 108
100 105 104 110 113 122 123 120 112 121 109 105 101 100 100 98 102 101 97 91 92 94 91 83 73 73 74 86 83 78 73 72 78 86 84 103 114 114 121 118 115 106 89
110 114 124 119 114 115 122 117 112 106 103 92 83 68 71 72 76 83 81 83 84 87 78 68 61 65 84 90 89 86 92 100 96 91 92 107 123 130 117 106 94 84 75
119 117 111 104 104 101 95 110 106 100 102 89 77 80 76 78 68 76 85 96 98 93 91 93 89 84 81 72 64 79 90 92 89 91 88 105 110 106 99 94 88 76 66

GFSGL_con_3kmhel_090.txt.gz
Helicity
112 94 72 55 63 80 65 67 55 50 79 98 100 91 66 66 88 111 121 131 114 98 91 174 247 156 141 198 157 135 182 251 184 138 174 190 169 214 234 212 225 201 212
109 104 78 64 69 70 61 56 52 50 58 72 94 110 113 98 101 109 131 131 136 123 138 153 160 158 138 177 252 225 254 298 255 201 197 197 174 135 217 220 249 289 268
85 101 102 95 103 87 86 73 61 62 62 60 72 95 108 119 132 149 148 160 182 170 160 174 190 199 183 216 239 242 293 341 350 298 244 304 239 281 228 213 208 220 230
102 118 124 124 134 130 138 135 109 96 79 70 74 83 97 115 117 124 125 137 150 180 196 202 218 237 255 238 268 269 285 286 281 293 278 230 242 266 295 240 226 274 259
89 67 69 83 109 97 92 100 135 135 120 105 104 106 114 132 160 157 160 163 173 172 189 224 231 220 210 242 277 237 283 318 296 289 283 263 228 248 298 324 303 232 225
309 283 279 293 173 123 84 78 107 96 105 118 133 137 148 177 176 206 242 236 229 208 180 183 199 209 208 259 297 267 267 343 321 312 313 297 265 269 265 294 268 237 172
219 210 211 200 192 203 194 216 275 241 165 139 159 164 163 176 199 239 251 253 241 272 271 262 265 281 262 246 226 244 237 266 297 286 291 299 286 303 295 297 321 295 258
215 221 216 198 189 188 177 172 185 173 178 157 184 151 116 129 209 178 253 290 296 260 280 288 279 267 292 307 294 264 275 252 259 265 250 243 263 275 310 319 317 304 546
186 186 196 199 186 178 180 189 175 168 160 155 141 186 203 261 335 324 235 186 216 246 259 256 247 215 182 237 305 282 271 285 484 370 466 558 626 595 535 426 448 467 498
147 157 154 155 158 173 172 167 156 140 136 129 143 174 219 210 280 220 153 146 218 244 267 271 278 344 350 278 257 309 298 315 600 721 749 697 656 639 669 578 442 381 556
86 113 129 141 138 156 141 142 163 155 139 137 127 136 146 177 187 245 245 106 121 202 271 383 436 405 343 362 383 406 413 605 764 743 618 627 645 650 568 564 531 432 433
40 51 63 91 107 135 161 160 164 163 152 167 158 154 156 150 193 209 223 273 233 242 296 332 353 350 351 304 324 507 627 678 607 763 1005 937 538 376 397 322 384 417 545
66 72 57 41 28 59 113 143 141 163 157 159 158 165 156 123 94 138 187 229 295 271 306 357 422 387 401 434 578 550 546 397 530 715 782 792 720 550 536 505 467 423 530
102 105 94 96 103 136 141 182 219 210 205 204 196 187 182 194 166 135 127 129 179 198 278 384 356 319 325 215 404 430 498 467 437 535 535 491 523 518 378 332 287 289 323
110 120 134 127 113 154 216 225 230 271 226 180 190 171 156 186 194 188 171 161 181 173 197 276 350 418 350 364 412 436 440 426 435 415 403 381 380 327 317 229 194 172 150
104 115 131 124 109 105 100 147 280 274 297 289 261 201 179 208 212 220 242 251 254 250 283 293 276 254 281 303 275 259 262 245 201 178 161 154 142 116 94 89 76 70 63
105 104 98 111 114 115 133 135 140 168 267 323 322 291 264 234 212 200 218 261 241 223 227 196 186 196 206 197 168 142 130 114 90 81 75 75 65 64 69 73 78 70 70
121 149 130 135 136 147 163 176 173 195 210 229 238 276 246 235 225 196 171 214 253 259 190 162 147 134 122 113 111 108 101 102 102 97 99 104 103 101 116 122 122 114 119
122 116 118 126 141 145 140 151 158 172 187 184 181 171 172 184 231 282 263 213 175 186 173 173 152 136 114 94 88 91 96 105 103 105 115 119 123 118 123 113 117 131 116
158 160 162 156 159 161 152 151 150 147 148 153 172 174 138 139 222 204 185 152 145 136 130 123 117 113 108 100 100 102 106 112 109 103 96 89 86 88 94 100 107 107 110
136 145 153 152 153 144 140 144 129 123 124 130 137 140 133 109 115 127 137 152 137 123 110 102 114 122 118 111 103 102 100 98 98 93 92 89 89 89 88 92 94 97 107
111 113 118 116 108 115 110 105 102 99 101 101 109 152 166 152 141 129 124 128 121 110 100 90 99 104 100 94 82 77 83 82 83 78 76 77 76 76 73 79 89 94 101
103 107 113 116 106 112 121 114 109 106 107 112 107 116 125 119 113 108 101 96 94 93 81 75 68 76 81 80 73 69 70 74 68 59 64 65 72 79 78 84 86 88 88
95 98 94 98 100 105 110 115 108 114 98 96 93 91 88 81 81 83 79 75 69 62 57 55 56 70 72 74 68 68 69 69 71 75 73 72 81 85 85 86 80 75 70
76 79 88 90 86 88 95 99 99 91 80 71 72 65 62 64 71 74 74 69 63 66 66 62 64 68 69 69 70 74 78 85 80 75 73 76 83 80 76 76 72 63 65
89 87 84 79 83 81 74 78 80 80 76 63 63 63 62 68 65 59 66 76 75 75 81 75 73 71 62 59 58 71 78 78 76 74 70 75 76 79 80 83 85 80 78

GFSGL_con_3kmhel_093.txt.gz
Helicity
112 86 61 71 69 42 36 38 32 28 22 26 41 55 94 105 80 73 41 39 62 51 56 89 115 113 101 211 200 184 190 210 216 117 100 106 135 175 151 173 161 125 146
108 86 68 72 84 59 29 24 28 21 18 18 27 30 50 58 58 68 98 125 146 123 138 98 105 155 145 210 230 282 178 150 199 92 129 147 230 263 287 273 272 268 226
133 112 95 103 86 63 58 45 40 29 30 25 33 50 62 65 74 79 101 119 130 127 130 126 99 94 110 118 127 162 199 207 211 228 155 192 193 230 215 260 258 280 253
155 162 153 127 108 82 74 78 73 59 51 53 59 55 52 69 85 107 123 130 138 128 122 119 122 123 133 142 159 170 184 189 174 204 192 162 185 217 260 212 196 233 208
184 158 113 108 89 76 66 69 75 71 54 43 47 52 67 66 69 75 82 78 89 107 120 138 145 155 162 181 209 182 193 217 222 240 256 218 178 202 267 325 304 236 227
363 304 266 201 199 166 127 64 53 74 80 97 36 28 39 61 86 116 104 113 114 113 134 150 176 198 196 233 253 219 207 239 256 273 285 288 272 266 252 268 270 258 248
433 299 296 329 210 180 175 197 227 225 210 247 237 170 92 204 292 210 108 159 169 179 174 172 179 201 200 197 212 249 246 247 248 247 283 335 319 320 301 256 271 299 293
198 202 319 249 175 156 153 184 208 198 203 193 210 250 204 266 306 270 227 110 134 134 161 175 182 180 204 243 250 244 257 234 252 272 270 209 244 379 466 425 364 325 325
169 123 139 160 173 169 166 182 184 173 174 176 184 206 193 231 294 276 210 166 136 138 163 290 378 332 367 291 191 210 253 267 535 460 543 611 638 578 439 383 400 416 389
108 113 99 131 145 156 165 171 165 152 163 167 181 195 222 197 275 268 200 137 174 212 310 356 466 406 405 353 303 298 265 278 455 550 622 629 570 544 565 387 224 209 380
83 90 104 118 119 124 123 138 147 151 156 172 175 173 184 203 184 235 232 146 147 187 257 303 330 384 332 333 288 247 220 289 394 445 533 623 508 523 494 518 497 316 278
65 83 99 97 94 109 126 140 155 144 144 159 156 151 154 151 203 211 226 235 210 196 214 221 232 291 359 399 374 469 447 462 477 564 610 559 627 553 428 437 387 463 488
61 78 89 93 92 118 147 156 150 164 153 149 143 143 148 135 108 134 140 146 161 122 124 170 215 230 278 341 417 449 426 398 367 350 387 468 420 424 338 342 308 311 408
39 36 34 47 58 93 130 173 182 189 180 174 173 175 175 192 183 147 116 100 113 90 110 146 157 180 228 234 284 312 296 315 342 333 336 306 311 339 310 244 210 151 224
48 45 48 48 55 75 144 159 163 219 198 178 205 227 244 260 254 232 202 164 139 125 115 144 179 184 192 186 196 214 227 243 246 203 199 203 204 192 191 155 132 138 135
63 72 74 63 62 59 62 96 227 237 274 272 261 190 168 202 210 196 196 198 194 172 193 204 205 191 184 158 153 157 165 172 153 136 127 124 128 121 111 106 100 95 97
112 107 101 105 94 88 89 88 85 114 178 248 246 220 216 189 182 174 183 232 231 187 203 190 185 187 178 170 163 157 154 133 108 108 110 107 100 108 114 120 117 109 108
115 138 120 129 133 135 137 139 135 147 160 172 203 223 215 204 201 196 186 195 239 246 195 175 160 146 138 132 127 124 120 122 131 126 126 127 126 121 128 133 130 126 120
123 121 116 116 124 127 131 140 142 146 148 145 140 168 195 230 266 298 259 190 164 165 154 155 145 140 135 122 110 104 104 109 106 106 113 117 119 112 114 107 105 119 103
124 142 129 121 123 128 125 129 134 140 145 151 164 169 144 131 184 197 190 173 167 158 148 142 135 124 114 107 101 97 97 104 104 102 102 100 99 98 102 100 100 103 107
113 127 140 137 140 131 129 134 130 131 134 136 144 156 163 145 158 172 176 179 166 153 141 131 125 120 111 106 100 96 91 85 89 88 87 89 90 95 94 98 102 102 99
109 111 118 121 111 113 112 109 111 112 114 116 120 145 160 152 152 153 151 144 129 118 106 106 106 105 102 102 93 85 84 83 80 76 77 76 78 82 83 88 91 100 101
97 99 102 103 99 95 104 108 108 110 112 112 110 115 126 122 117 116 118 112 107 101 94 91 85 86 83 80 81 80 78 77 70 61 60 65 71 76 77 89 92 93 95
99 101 102 100 95 93 92 94 97 103 98 100 102 104 107 104 102 103 96 90 85 83 79 77 80 86 74 71 71 71 72 69 63 64 62 62 69 68 71 72 76 75 74
91 94 98 94 95 96 99 106 105 103 102 103 104 102 99 93 88 84 79 75 72 70 71 68 70 73 76 73 76 79 76 80 71 57 54 57 70 69 72 73 74 74 82
101 102 99 96 100 100 107 108 109 104 102 98 94 92 92 91 88 82 73 75 72 71 69 68 70 73 64 65 74 79 75 77 74 71 64 66 71 73 73 78 82 79 81

GFSGL_con_3kmhel_096.txt.gz
Helicity
159 114 122 112 64 75 36 76 56 62 49 37 57 93 90 98 94 107 103 110 70 49 -3 67 29 -18 32 57 81 113 47 117 92 83 131 126 149 180 91 72 64 98 114
157 115 106 116 81 89 56 74 60 41 34 33 40 81 52 54 67 51 80 77 63 14 66 100 64 44 21 92 120 76 71 183 248 138 173 118 104 98 88 51 82 139 145
119 129 104 111 102 89 64 58 68 47 33 18 29 43 53 76 90 86 70 48 49 43 68 82 76 76 87 90 125 167 193 222 236 194 159 149 149 147 149 151 152 134 145
169 178 160 132 135 115 71 86 79 65 52 38 27 21 28 40 49 56 54 57 94 105 107 118 123 119 159 153 150 143 146 149 156 200 161 157 161 140 142 153 184 241 261
340 329 256 176 185 160 107 100 95 85 71 47 42 38 41 48 58 41 56 65 79 92 98 110 126 127 115 97 91 72 88 116 147 176 211 182 164 165 202 216 205 227 219
481 491 513 439 332 303 272 279 249 210 175 120 84 54 43 196 209 178 85 71 69 64 61 63 66 95 78 72 82 85 106 130 141 170 201 233 209 211 206 217 208 225 269
439 410 386 441 406 294 235 215 211 212 212 237 204 203 247 249 294 267 199 88 85 84 84 83 92 116 128 131 133 127 102 104 153 160 200 235 248 279 228 204 226 220 260
414 413 368 410 596 471 228 213 181 179 202 219 267 231 236 266 279 237 185 104 86 97 147 190 202 186 235 216 171 142 145 164 164 156 156 224 325 313 326 362 358 370 325
296 328 303 389 305 352 195 212 171 196 206 223 235 270 244 265 326 284 155 136 189 253 258 309 294 293 333 313 199 169 191 286 384 443 531 536 566 574 432 233 266 293 240
316 298 303 191 252 141 214 159 114 114 144 164 207 229 260 226 307 328 217 178 233 249 281 298 391 336 334 310 204 220 224 285 321 414 457 444 425 437 471 355 260 232 223
58 88 91 96 103 88 87 126 127 138 142 150 170 186 179 207 205 276 265 189 188 217 234 222 222 258 267 290 267 242 275 349 399 349 354 372 376 342 330 313 371 328 262
38 46 56 72 80 74 82 101 113 117 128 143 137 139 159 162 227 234 239 221 182 176 191 182 171 219 243 251 239 287 304 275 271 294 321 332 288 264 224 257 297 313 331
77 88 94 85 97 126 117 104 114 136 132 132 142 146 164 175 160 183 198 199 200 156 143 165 188 203 222 254 335 310 268 256 261 275 276 269 262 233 187 177 173 168 212
74 84 93 114 120 120 114 158 162 148 140 142 143 143 142 151 149 114 89 70 77 75 83 108 113 118 160 188 209 247 246 258 244 230 212 193 180 189 204 197 193 148 181
56 66 80 83 96 118 167 159 152 211 187 143 150 148 138 153 162 149 119 103 102 106 102 131 159 174 188 196 202 211 214 214 221 202 193 183 170 157 162 146 143 138 158
58 58 55 51 55 68 83 116 219 237 245 234 237 150 139 174 175 180 177 163 161 128 141 164 181 193 204 198 192 181 178 181 165 151 150 150 151 149 136 128 125 134 138
93 80 76 84 82 79 79 72 68 106 187 248 241 236 224 198 198 199 215 233 231 169 185 178 167 158 145 134 130 133 141 148 139 145 145 143 133 130 133 131 125 127 132
112 131 122 130 131 131 135 136 131 131 139 146 189 198 217 224 218 188 139 123 156 172 157 152 152 151 151 151 148 142 134 129 134 136 144 152 154 147 148 148 151 150 142
142 140 138 135 138 135 129 131 133 137 140 141 124 137 146 148 175 210 201 172 163 160 149 146 144 141 138 132 131 137 151 162 168 161 164 163 158 153 154 139 129 145 129
129 148 139 131 131 134 138 144 147 149 150 155 166 174 152 140 163 164 159 154 150 151 150 153 155 159 168 171 172 170 162 165 161 157 149 144 139 134 131 127 124 120 121
123 129 134 134 141 138 135 141 133 126 125 123 125 137 155 131 138 144 145 156 159 157 156 156 156 161 156 151 148 146 150 141 140 127 125 119 120 119 118 119 123 122 124
118 124 131 140 142 148 139 131 129 129 128 123 113 118 148 137 140 144 151 155 154 153 149 144 140 140 141 141 139 129 121 123 119 113 112 106 109 118 117 123 122 119 118
119 122 124 125 121 116 124 124 122 121 123 129 132 138 150 153 156 156 154 151 145 141 141 138 136 129 120 110 110 117 117 118 113 110 105 108 109 111 106 110 117 112 118
104 105 109 111 115 109 110 109 107 128 127 128 131 133 137 135 135 134 132 130 125 120 115 108 109 119 113 105 107 106 112 110 96 93 92 92 90 90 91 98 101 107 103
91 91 96 99 102 102 102 113 114 117 118 120 120 121 120 119 117 113 108 102 100 97 97 93 101 101 102 98 102 105 106 104 97 86 72 69 80 82 90 89 100 93 98
110 110 108 107 109 110 108 105 107 104 111 104 105 107 106 104 101 94 92 92 90 87 87 89 90 89 86 77 94 96 87 88 86 84 77 72 84 86 90 92 93 91 93

GFSGL_con_3kmhel_099.txt.gz
Helicity
140 192 194 165 140 146 160 125 112 83 96 117 153 128 129 143 147 181 167 119 110 121 76 74 42 35 14 11 28 36 57 106 72 70 73 85 82 53 105 137 205 141 163
151 178 179 190 142 163 147 107 114 104 51 85 101 108 145 113 127 136 129 92 110 119 85 80 30 38 -23 -36 18 65 83 119 93 41 95 91 45 46 90 84 139 160 234
173 187 174 175 148 165 156 125 106 88 37 37 54 65 78 86 94 89 88 73 50 74 86 28 41 63 35 48 58 36 51 63 88 118 61 97 121 133 137 162 194 197 190
193 179 188 177 162 165 148 122 87 62 56 29 18 36 37 41 49 52 56 57 28 7 19 -9 6 66 38 69 56 45 91 115 116 150 123 140 158 154 185 175 156 188 198
502 494 401 241 195 173 155 142 129 115 114 63 60 61 48 61 117 69 16 7 6 7 7 39 78 89 73 85 95 62 74 102 151 190 191 162 125 135 143 162 177 177 180
489 526 545 508 452 421 361 420 285 271 262 227 218 169 225 196 220 165 119 72 52 56 56 70 74 87 97 115 120 93 67 75 75 93 90 112 108 130 120 128 125 126 130
521 561 575 559 508 482 434 450 447 401 380 342 330 318 289 234 259 215 173 105 90 121 167 149 137 256 273 239 182 65 20 34 81 88 100 97 106 189 194 150 131 189 179
545 571 572 549 573 546 550 493 459 419 398 360 324 301 274 256 301 269 196 160 212 220 189 173 157 153 151 135 113 113 163 190 170 234 292 297 286 257 244 164 154 170 187
480 564 448 428 505 571 533 513 416 418 431 387 351 319 299 305 392 378 227 233 256 278 277 292 253 242 279 238 138 140 200 219 263 288 275 326 373 392 334 172 229 202 127
529 202 323 258 341 269 187 183 188 257 164 146 209 253 270 272 383 431 203 197 223 219 244 248 297 270 292 288 209 223 286 282 268 292 282 316 315 324 333 249 210 147 238
132 238 126 155 52 171 123 215 105 90 24 63 71 91 102 156 190 260 283 185 194 199 206 212 206 229 218 253 259 237 225 230 261 278 296 305 303 290 269 246 267 246 182
-8 15 49 63 79 69 90 126 131 124 135 136 127 150 156 161 207 264 290 283 209 191 195 185 187 266 291 286 256 257 245 233 238 254 268 287 276 265 233 205 208 206 209
73 66 72 55 69 110 137 125 143 147 134 141 135 96 110 136 126 172 204 221 221 189 177 190 203 206 221 253 313 305 276 236 235 244 237 224 212 194 174 165 119 92 118
92 93 88 122 149 179 153 163 210 153 120 127 102 119 124 151 196 176 150 132 140 138 134 140 141 151 188 207 213 230 227 228 216 205 200 184 163 169 173 146 145 121 132
59 65 77 72 91 119 185 168 151 194 199 148 167 177 153 171 176 168 159 159 164 162 148 155 161 167 178 181 189 207 213 201 202 187 175 169 167 152 156 142 139 128 142
85 82 89 81 79 86 104 125 212 214 233 237 243 143 166 201 214 204 200 191 179 144 146 167 186 193 204 199 200 192 203 212 203 189 187 185 183 187 178 169 164 171 170
111 104 96 101 101 102 103 95 104 135 188 237 251 253 248 219 209 193 188 226 236 165 175 187 199 201 199 197 197 197 195 194 180 182 186 182 174 162 161 155 151 142 144
101 124 102 105 108 111 111 113 115 113 132 149 180 190 226 236 234 245 175 148 172 193 190 190 188 183 182 179 175 176 175 176 177 172 174 171 169 158 150 147 152 148 139
131 123 110 108 114 112 107 116 123 130 139 146 137 157 153 167 197 223 208 177 174 177 172 176 173 165 159 152 151 138 142 137 135 133 138 137 143 139 142 143 135 131 133
110 139 125 113 120 131 134 138 139 136 136 141 156 168 154 143 162 168 169 161 156 156 149 150 149 146 147 141 129 139 128 141 140 137 131 130 137 136 144 141 130 137 136
118 115 130 126 136 136 140 144 141 142 140 139 152 160 190 145 148 151 152 164 165 162 160 154 152 155 152 153 150 142 146 142 142 141 133 133 120 123 122 125 123 126 133
116 117 124 132 130 141 130 130 134 138 137 131 111 115 144 137 137 139 141 143 144 149 145 149 148 149 148 149 147 144 139 142 139 136 130 121 121 118 121 117 124 129 132
111 118 114 114 109 105 121 128 124 119 119 122 119 122 129 130 138 135 130 128 126 125 130 134 137 131 130 121 125 131 134 133 126 122 123 125 121 121 112 116 114 123 134
101 101 108 110 127 119 115 104 94 118 127 121 118 116 120 118 117 114 114 114 113 113 120 114 111 123 126 128 125 126 126 127 116 119 116 105 108 122 120 117 112 122 108
110 108 114 115 119 111 106 117 115 116 115 115 113 113 114 113 112 113 112 109 108 110 107 105 112 117 125 111 117 132 128 130 122 118 104 95 95 95 85 105 106 105 101
111 114 114 114 115 120 121 117 117 116 117 115 113 112 112 112 114 108 102 99 106 96 92 101 105 111 107 103 131 117 101 102 101 100 91 79 89 100 112 122 109 107 100

GFSGL_con_3kmhel_102.txt.gz
Helicity
97 43 156 210 235 221 197 172 173 185 196 220 183 161 136 153 122 111 94 133 45 42 97 85 75 43 36 73 65 38 50 122 88 34 90 146 209 206 159 164 137 131 162
47 144 195 372 223 200 158 164 198 191 163 181 183 128 105 148 161 162 120 101 49 79 93 106 59 74 90 102 89 45 48 57 75 41 100 138 146 142 159 129 133 168 246
115 157 188 277 227 194 164 146 180 188 148 146 139 133 94 101 143 127 139 157 155 129 184 164 95 125 138 99 97 62 91 84 92 113 85 110 114 128 97 94 138 142 144
137 133 177 162 224 157 153 186 177 164 154 123 121 119 79 80 87 73 98 110 137 103 110 117 119 123 60 72 95 68 86 95 83 95 103 68 48 78 91 79 111 165 157
513 479 451 271 209 190 199 138 146 155 123 124 125 90 99 120 157 98 88 85 73 71 74 82 64 37 42 143 101 97 95 90 72 73 52 53 69 93 117 96 116 131 142
563 620 640 556 498 402 367 349 352 387 389 410 440 418 356 294 245 183 133 62 45 61 59 69 73 129 101 73 52 85 106 88 65 82 85 101 104 85 133 103 85 74 68
504 571 667 662 600 504 497 511 503 431 398 437 488 428 380 322 310 215 152 148 195 226 232 194 184 206 218 178 158 175 236 245 163 117 88 103 144 177 129 108 83 141 168
436 460 508 541 594 563 537 565 599 511 476 477 501 446 359 354 370 269 216 231 265 265 242 251 253 257 254 207 190 221 261 300 273 268 289 288 262 230 190 179 171 165 142
468 412 389 381 438 561 587 607 569 547 548 537 542 563 470 459 489 305 274 302 322 341 325 298 267 255 258 226 178 200 183 186 196 208 253 282 296 301 269 139 181 149 214
248 351 317 378 307 362 457 463 437 569 505 499 530 511 507 470 458 257 248 283 316 370 404 366 370 310 320 246 223 211 234 223 239 240 217 250 255 284 298 214 168 144 195
60 85 177 210 289 302 227 174 196 267 284 281 354 402 356 288 396 358 198 195 176 228 219 231 271 305 299 302 265 225 206 190 226 234 230 222 218 215 204 205 220 215 183
28 31 53 128 168 167 175 137 87 126 153 99 238 114 165 178 214 170 227 206 196 157 150 131 153 222 277 279 232 208 185 173 186 203 211 231 238 232 201 175 168 143 143
24 47 61 98 118 105 154 185 124 103 101 110 109 112 154 170 147 213 219 217 218 218 179 189 225 252 276 301 329 306 277 235 218 226 227 225 204 191 173 137 119 105 89
42 44 64 106 141 174 160 181 186 166 148 139 111 123 133 142 147 137 148 147 171 153 121 135 145 164 211 228 239 245 240 237 224 204 194 173 155 179 204 196 173 150 148
69 65 60 58 70 105 165 173 168 208 194 168 185 192 200 222 205 194 190 173 164 159 174 205 226 217 227 227 240 258 264 249 241 226 213 195 212 186 181 184 194 169 174
79 82 94 80 54 47 50 93 181 176 187 200 195 173 189 197 200 208 202 188 181 160 164 178 193 205 222 222 210 206 230 238 220 203 204 206 181 199 185 191 185 192 182
116 105 99 100 108 110 72 60 57 113 175 203 230 235 228 218 187 174 173 200 178 173 186 199 194 189 177 183 181 197 200 204 178 192 195 229 216 186 174 192 204 226 185
109 119 110 115 112 106 114 124 113 105 97 88 139 151 188 211 228 223 162 157 175 201 189 182 177 170 165 165 156 162 172 195 206 190 195 206 217 173 186 170 159 180 185
115 116 95 99 115 118 109 110 106 116 134 147 152 168 141 177 212 240 237 194 172 166 163 181 191 199 165 167 199 161 179 185 183 166 172 195 223 178 180 161 168 181 159
103 136 127 115 114 116 117 126 126 113 115 121 141 172 172 128 146 180 218 205 197 212 171 179 191 191 198 187 153 193 170 180 206 170 169 166 177 156 148 140 130 131 120
89 94 124 119 136 129 126 128 119 100 76 94 128 174 190 123 124 135 154 182 171 162 161 122 127 166 176 175 178 144 160 153 157 193 170 152 149 117 129 106 121 147 129
83 81 87 100 106 145 132 115 120 124 118 75 59 113 162 129 119 117 124 130 137 180 164 166 146 148 148 151 150 160 156 163 146 134 140 163 173 118 148 150 118 124 140
90 103 105 101 87 94 128 150 153 105 99 110 102 106 108 112 134 120 118 109 100 102 117 109 133 139 178 160 143 140 146 138 141 124 130 153 166 136 158 159 149 122 124
116 128 111 85 125 128 101 59 75 110 125 106 98 93 94 94 87 82 93 111 115 96 117 115 90 112 131 139 130 116 123 109 116 109 119 120 135 113 124 127 139 121 139
120 125 124 124 133 125 114 124 123 123 112 116 116 111 105 107 103 99 101 94 112 115 105 94 104 110 110 91 130 114 89 103 103 106 99 106 126 119 114 125 143 117 121
127 141 143 146 140 145 152 145 125 127 127 121 116 113 113 107 111 110 91 121 112 92 78 86 79 84 112 117 111 83 100 113 105 102 102 111 120 125 128 115 112 124 121

GFSGL_con_3kmhel_108.txt.gz
Helicity
330 366 212 228 240 264 255 267 287 222 202 195 192 192 173 145 138 115 109 149 225 214 240 270 298 381 290 252 258 236 170 184 170 185 183 140 56 87 101 106 101 86 86
341 440 242 177 156 203 267 281 307 251 203 169 165 179 173 144 145 99 100 126 147 139 134 252 314 313 222 208 192 177 129 111 174 151 115 136 102 102 88 107 95 96 102
280 325 364 310 157 134 215 297 276 266 192 144 122 155 152 132 144 101 82 124 165 134 219 184 172 189 173 158 144 143 143 125 118 105 36 111 100 79 117 122 110 102 107
195 227 312 344 336 225 205 235 268 220 172 85 76 132 137 137 146 109 81 97 122 128 123 134 152 146 124 150 142 98 105 77 95 127 86 135 118 93 139 120 97 92 86
167 139 264 303 332 347 380 193 189 185 136 70 101 154 169 164 198 124 88 91 111 146 134 132 134 148 156 162 173 148 125 148 166 131 132 127 131 136 143 125 101 92 115
110 124 171 257 362 390 532 590 649 494 385 375 312 279 283 223 195 161 121 104 115 134 131 151 130 79 151 177 195 227 153 125 123 136 160 144 142 130 137 130 130 147 146
250 267 154 157 263 452 332 564 673 472 427 438 407 340 317 259 193 158 167 187 209 237 240 211 238 213 210 187 283 323 301 333 288 169 142 177 175 175 149 162 178 207 229
131 243 233 199 135 458 432 580 562 741 699 542 508 440 399 360 309 298 299 297 322 275 291 312 243 239 250 226 264 295 321 299 279 251 242 259 215 185 190 199 205 176 168
80 93 249 211 204 203 391 400 627 496 713 789 656 560 475 446 375 339 332 383 352 356 348 303 276 223 217 237 312 404 458 421 392 395 380 401 393 356 266 220 204 230 273
17 58 65 130 180 210 131 162 430 333 365 355 595 636 598 493 425 421 384 412 512 441 434 459 426 394 306 284 259 283 417 401 389 388 400 445 468 404 358 252 196 181 218
18 12 36 63 93 151 150 154 150 202 163 318 167 370 440 439 413 382 434 459 481 523 564 641 598 400 333 329 300 283 231 239 312 327 340 350 337 384 273 325 263 247 230
25 39 52 56 51 68 92 96 135 114 98 127 176 395 390 353 338 411 330 292 328 312 396 334 308 432 536 357 359 335 305 300 351 374 367 282 232 255 213 252 264 278 273
34 52 69 67 87 93 84 62 58 94 127 152 134 92 94 157 247 257 271 280 259 283 244 263 358 387 400 383 404 309 321 241 199 216 176 184 169 135 182 198 202 203 236
22 39 48 70 95 100 108 117 107 121 104 97 97 100 95 100 92 113 137 132 145 142 159 194 196 154 197 200 201 224 236 213 198 190 191 202 217 207 185 116 125 164 218
57 32 35 35 50 69 105 122 118 137 111 107 125 122 110 119 111 109 92 84 100 122 138 160 184 225 252 253 244 240 225 211 200 188 194 218 243 241 251 233 193 182 169
63 59 52 28 38 42 48 77 162 159 187 219 214 147 139 135 139 137 146 147 147 150 182 173 180 182 179 167 167 172 201 216 209 210 239 225 206 197 200 211 192 162 159
81 75 71 79 41 31 36 57 84 122 169 231 218 204 189 135 143 141 151 165 152 162 163 159 161 159 160 170 162 172 189 184 172 191 187 175 160 177 194 209 204 187 181
95 101 89 81 76 69 45 52 72 90 115 142 189 194 183 172 145 123 114 149 180 201 177 164 162 155 158 160 164 164 178 198 214 216 213 193 181 178 193 197 203 191 190
86 97 104 104 104 93 92 98 94 102 116 129 136 151 157 163 181 205 204 169 155 170 168 179 171 172 169 163 166 179 192 201 198 210 225 216 199 179 196 202 190 209 200
83 97 106 108 117 112 102 101 97 99 133 142 139 127 121 147 175 185 194 188 184 180 177 183 184 179 173 165 177 177 194 213 218 224 236 237 228 200 183 168 163 157 166
89 77 84 99 122 121 98 89 71 82 107 132 132 107 122 124 150 165 171 182 171 166 157 155 170 178 177 177 169 171 175 182 193 194 195 197 212 201 181 162 165 151 149
107 102 100 80 83 109 109 77 56 66 78 87 98 102 113 100 111 124 130 133 141 140 134 125 143 159 159 144 128 127 142 154 165 173 180 187 192 194 182 171 171 164 160
123 115 104 97 90 94 114 109 89 78 73 66 69 74 79 86 98 99 101 99 96 100 98 109 122 123 119 110 100 100 128 137 131 133 160 173 171 171 164 170 175 178 175
124 130 121 107 101 83 85 89 92 93 83 77 74 61 57 48 55 64 71 91 100 95 88 91 89 92 109 115 112 109 107 117 130 137 136 149 167 176 163 159 164 159 143
123 112 115 116 109 111 109 108 96 90 92 91 89 87 85 83 92 87 85 99 109 90 90 90 84 82 95 108 115 113 118 136 126 131 131 137 142 139 132 129 130 128 131
127 116 106 106 111 117 108 116 119 100 87 89 81 80 83 92 83 88 98 105 107 110 97 100 76 77 65 69 62 68 97 109 111 112 110 116 128 121 125 122 127 119 117

GFSGL_con_3kmhel_111.txt.gz
Helicity
227 276 370 291 189 217 259 265 299 299 312 254 204 189 183 186 203 180 148 131 126 86 117 274 180 246 303 370 412 399 388 257 144 118 47 87 123 125 165 160 145 116 107
376 394 425 494 524 293 245 235 264 234 236 220 205 183 198 175 184 163 149 144 130 108 111 156 229 319 329 419 445 366 316 258 233 187 157 104 124 142 114 95 71 57 80
369 336 311 376 385 394 315 159 183 203 227 238 219 181 178 157 175 162 154 139 126 101 106 191 276 296 238 342 400 358 238 235 201 198 168 140 202 135 137 157 160 92 125
207 224 211 199 225 259 246 273 134 170 201 223 232 196 145 149 155 155 154 130 127 102 77 162 218 255 362 374 366 198 204 209 193 149 137 143 128 123 178 160 114 96 161
205 215 225 206 166 186 249 278 362 167 191 213 242 177 126 114 165 164 166 157 148 143 104 129 223 253 194 195 204 184 173 166 165 133 151 186 196 236 148 189 113 165 229
182 157 211 181 186 65 182 174 342 556 586 513 389 270 283 234 247 231 191 143 142 138 108 107 104 106 138 135 139 135 164 140 168 192 186 229 161 151 168 182 175 212 191
206 212 269 250 227 167 99 119 153 408 561 561 512 385 330 232 219 183 187 206 224 254 194 175 208 203 192 240 309 337 348 365 287 206 187 174 163 187 192 210 210 202 220
102 172 227 207 232 246 187 164 263 296 576 324 564 505 369 307 313 296 305 294 308 303 260 280 210 212 209 210 286 298 334 323 307 276 319 309 286 231 233 208 234 279 273
48 60 93 161 138 166 220 147 246 273 325 314 287 424 453 388 326 316 326 371 365 374 323 287 246 218 169 239 301 368 399 375 358 390 427 430 369 360 276 242 255 279 253
29 23 13 29 68 79 154 171 163 106 107 146 248 287 376 415 543 343 356 369 422 443 422 351 373 306 318 234 257 305 389 276 274 391 459 483 462 419 389 313 281 292 296
20 8 18 33 22 21 35 60 84 106 149 191 298 257 221 310 346 345 488 349 329 431 504 429 350 426 471 471 449 397 360 365 373 327 333 332 376 379 416 362 320 257 284
9 19 25 20 22 46 57 37 62 64 77 108 114 151 186 239 310 270 280 295 387 270 300 308 414 371 359 422 455 488 428 391 362 328 315 359 377 362 353 346 362 269 279
26 25 32 46 51 53 61 82 89 111 98 67 45 54 91 126 125 216 221 205 234 250 312 385 357 345 360 425 422 474 393 337 335 401 411 400 307 255 204 266 229 242 279
9 19 14 18 33 59 56 66 83 91 86 94 108 98 54 38 41 51 70 103 154 143 156 184 275 314 368 393 335 287 248 186 192 269 326 328 202 211 206 206 213 180 167
17 14 11 3 8 17 47 63 64 107 104 71 83 80 82 95 99 90 73 53 67 99 107 136 164 169 181 210 239 248 230 216 224 220 217 199 219 220 197 154 144 164 163
47 38 31 12 16 13 15 46 126 128 181 193 173 103 100 105 108 114 122 125 131 128 143 150 161 162 164 166 168 174 193 196 193 180 183 177 180 180 170 172 159 180 215
41 47 46 58 42 42 48 64 71 86 125 203 207 190 164 148 135 121 116 147 150 149 164 165 168 175 186 199 196 198 211 224 204 201 180 176 178 191 199 217 220 192 177
51 53 38 42 52 68 78 79 78 79 96 131 157 177 169 165 164 145 127 154 163 174 153 162 160 156 152 152 161 163 173 187 189 184 189 181 171 159 165 168 164 156 161
48 55 58 60 56 58 67 83 85 101 115 117 121 134 148 155 169 198 196 151 137 160 151 153 149 151 151 142 144 152 158 168 161 167 171 161 154 136 145 140 149 170 160
67 70 77 69 81 84 87 82 87 89 101 116 127 119 105 122 158 162 165 154 152 147 147 150 158 157 154 155 158 159 167 178 178 177 180 169 161 146 135 128 129 131 143
82 87 91 85 94 83 73 78 65 71 76 90 94 83 90 75 110 130 137 146 137 132 129 132 146 154 156 154 146 145 145 148 156 158 163 161 164 152 138 130 122 122 123
88 84 83 85 79 90 79 75 81 76 70 65 62 65 83 64 81 90 97 106 111 112 108 98 118 132 134 118 101 109 128 143 150 151 146 145 138 133 122 117 121 109 102
101 104 99 89 81 82 92 76 63 64 61 62 60 61 57 52 58 66 72 79 92 102 97 96 102 111 115 115 110 96 106 117 110 106 124 132 127 127 124 126 126 133 142
108 111 104 99 95 87 81 74 73 69 63 54 45 42 42 36 45 60 55 45 63 79 84 83 79 73 77 79 77 75 75 83 93 103 108 125 142 145 141 137 139 142 139
113 102 98 101 106 98 103 105 98 86 74 59 55 57 60 50 53 55 60 68 72 82 84 73 56 58 67 70 76 91 102 115 122 119 117 121 132 134 123 128 123 115 123
104 104 102 95 95 96 99 105 107 94 84 75 73 65 62 56 67 68 64 62 63 71 86 72 49 47 57 67 73 88 100 112 119 121 112 110 117 118 114 112 112 106 107

GFSGL_con_3kmhel_114.txt.gz
Helicity
267 243 207 193 220 204 148 131 146 178 191 213 254 271 259 226 287 230 220 230 197 195 178 146 105 83 167 261 334 568 466 281 292 290 323 224 170 114 137 107 85 110 111
196 151 179 244 313 359 402 445 212 225 225 193 243 267 259 244 239 220 224 200 169 154 129 137 112 167 190 280 439 400 247 343 298 281 287 224 124 90 97 156 154 143 130
403 383 365 366 406 431 426 422 376 229 251 251 247 213 217 219 213 192 191 175 157 141 137 134 120 189 176 258 371 312 345 389 360 318 268 198 185 116 146 212 179 222 197
375 381 398 395 301 319 310 330 272 247 255 195 171 153 170 205 230 166 169 153 143 132 120 127 97 116 182 332 313 275 418 426 393 284 231 229 206 178 177 168 175 184 210
284 303 314 266 228 218 217 153 173 131 208 255 208 163 196 220 261 175 146 127 130 129 119 125 102 137 231 260 299 251 335 367 336 218 168 155 193 211 177 182 163 269 312
238 252 327 286 288 237 264 245 152 144 118 263 369 400 502 437 587 336 116 108 126 133 128 147 113 101 161 241 340 272 472 260 166 162 171 203 114 138 174 185 212 326 259
122 171 261 329 306 296 211 232 217 194 192 181 352 458 447 417 519 397 183 168 188 221 231 188 184 177 158 223 316 354 391 347 252 146 192 181 143 200 262 276 185 236 294
50 67 90 171 235 278 255 208 183 158 195 230 207 262 213 205 315 343 287 309 302 295 265 246 203 185 190 225 272 317 324 350 287 368 367 384 384 354 310 264 287 383 400
51 46 33 26 68 125 215 253 224 165 191 232 164 110 234 138 171 274 275 339 387 370 330 297 236 230 204 205 303 343 342 322 381 484 475 459 500 364 358 316 337 359 363
72 44 18 14 15 11 18 67 108 131 150 140 219 236 250 283 214 53 242 234 330 366 409 393 334 295 256 287 283 300 358 305 326 338 421 497 424 394 451 398 278 386 406
33 29 38 40 30 26 19 22 15 31 60 107 134 159 159 201 254 167 92 137 261 354 463 442 323 290 271 319 315 344 334 368 408 371 446 426 465 500 466 498 494 373 355
14 15 30 41 47 65 75 73 71 63 52 44 52 89 136 172 185 202 242 249 234 221 230 261 330 428 412 382 305 374 418 427 413 496 449 508 526 552 551 547 525 499 454
28 30 24 22 34 35 56 70 74 84 73 78 68 74 71 42 81 145 151 153 179 131 143 252 249 293 384 462 451 485 387 362 374 396 399 462 481 561 471 474 391 426 472
20 31 32 29 34 49 39 53 73 82 59 45 53 76 78 93 101 93 93 99 129 118 117 148 180 216 247 226 282 323 335 364 357 351 366 336 264 254 288 251 250 257 329
21 20 18 11 13 17 32 52 60 94 94 45 54 64 68 87 91 98 97 81 89 94 94 135 164 171 182 198 213 236 247 247 258 224 226 226 230 231 263 236 234 237 239
34 29 19 9 9 15 16 15 71 94 145 170 164 111 96 119 133 145 139 128 125 124 124 146 171 180 177 160 155 161 175 169 160 149 152 146 146 147 151 166 163 168 167
26 33 18 19 14 25 26 42 66 58 95 160 174 165 158 151 142 126 113 161 180 178 170 166 160 161 163 170 171 183 186 180 159 159 142 134 128 144 149 154 157 154 168
21 28 15 10 11 19 27 27 24 34 55 95 111 160 183 183 175 167 125 160 170 195 169 168 173 175 165 158 165 165 169 183 185 187 195 186 178 162 169 172 170 161 156
26 25 21 16 18 19 21 27 32 48 67 70 85 101 131 160 191 223 210 146 137 165 163 173 167 165 164 156 152 152 158 173 171 169 174 169 156 144 156 149 153 172 162
50 49 51 37 27 34 40 40 39 43 54 67 88 103 92 92 135 159 174 160 150 137 130 136 142 139 136 129 130 135 149 164 168 163 160 155 148 140 141 141 144 141 153
43 42 49 47 56 37 24 29 19 28 32 43 47 47 66 53 95 114 121 137 134 136 136 129 135 137 137 140 135 136 138 142 149 151 154 156 146 142 132 127 124 122 115
65 58 54 57 56 66 49 37 34 31 32 38 37 46 62 41 56 73 93 110 112 109 101 98 118 131 129 117 104 103 114 123 129 131 130 126 118 111 101 99 106 108 117
85 82 77 71 67 70 72 53 49 42 38 35 30 37 38 43 50 61 66 72 88 93 90 83 82 89 92 91 89 89 98 111 108 100 109 112 111 110 107 107 100 106 111
87 88 84 76 74 75 77 72 63 55 48 42 37 35 37 35 42 42 42 57 73 80 73 67 62 60 65 75 85 89 92 98 107 113 115 119 122 120 111 103 98 96 93
82 78 81 75 74 69 72 82 83 83 69 52 44 45 41 40 37 38 38 44 53 62 71 61 59 61 66 74 86 92 99 113 116 111 101 97 99 98 97 105 102 100 104
73 76 66 68 75 76 72 71 71 74 73 72 66 63 56 48 51 46 43 51 55 62 59 47 36 40 37 40 46 59 76 90 101 106 95 88 93 99 97 97 100 93 92

GFSGL_con_3kmhel_117.txt.gz
Helicity
393 374 332 287 270 229 214 224 247 126 149 150 154 178 202 204 212 237 230 248 267 265 240 206 206 193 191 164 148 142 144 227 194 385 331 335 239 223 137 85 77 85 78
293 256 239 238 221 178 188 211 220 227 121 168 165 152 186 214 202 231 224 272 242 241 218 213 177 194 139 121 142 126 174 196 254 442 424 272 293 181 261 187 178 75 84
235 222 231 254 257 235 220 260 277 297 328 239 195 199 204 214 226 239 240 256 243 206 205 169 134 113 134 125 150 195 203 265 284 354 300 321 299 295 305 209 166 98 198
321 345 353 364 321 264 257 267 335 356 362 369 368 275 264 261 270 251 227 226 226 204 121 127 108 123 133 141 181 172 198 271 235 254 311 329 285 249 254 221 276 278 235
386 379 360 313 312 322 315 333 297 329 296 267 294 348 395 423 406 349 284 202 216 268 128 138 130 115 107 107 169 206 255 267 273 290 375 341 314 297 247 273 188 267 254
185 247 297 275 289 306 297 288 244 280 236 213 232 219 249 231 288 243 287 231 191 143 145 93 118 108 104 94 183 214 212 267 235 271 321 229 220 239 263 258 294 267 220
107 113 190 267 271 273 255 312 332 321 273 244 207 225 216 241 264 194 270 334 449 262 225 124 134 152 134 171 250 369 448 465 298 286 321 279 207 183 228 237 233 239 227
89 84 82 101 118 163 197 218 222 237 217 211 261 261 286 319 300 164 205 335 325 403 440 290 233 215 188 203 251 331 400 404 338 337 352 303 273 279 218 187 166 282 422
109 102 84 78 57 53 84 124 145 162 174 186 208 245 267 291 337 316 133 62 212 293 394 449 329 296 279 263 267 338 379 381 365 420 433 456 444 485 448 350 412 443 526
102 78 72 69 73 80 78 66 43 37 68 80 115 143 206 207 357 412 307 243 233 220 211 237 421 369 216 221 305 264 368 313 344 379 355 496 543 519 587 467 397 416 496
62 45 57 59 61 77 72 76 64 65 65 67 63 91 113 164 188 233 258 201 176 222 200 170 126 194 331 319 294 349 288 285 369 391 412 441 504 524 480 510 545 408 351
55 53 53 48 39 44 62 74 77 75 80 86 91 90 94 74 113 123 117 134 144 147 190 190 167 205 165 299 360 367 416 331 327 407 443 550 550 553 529 573 536 568 588
37 55 55 54 57 53 67 80 78 78 72 68 57 59 70 83 91 116 98 93 92 49 86 156 215 224 259 260 235 296 313 369 337 357 430 419 475 506 544 450 571 587 644
39 37 35 32 30 41 41 50 58 74 71 77 79 76 71 84 107 104 85 84 88 69 71 93 129 172 216 209 231 266 241 222 241 286 289 324 322 384 561 516 484 532 677
30 34 35 28 34 27 20 28 23 45 61 44 56 61 84 91 103 112 102 84 62 68 85 115 140 135 146 188 201 211 206 191 181 151 144 163 175 162 225 233 238 242 246
24 22 22 17 20 27 32 24 51 67 97 106 112 84 65 100 99 102 124 120 121 105 104 122 143 158 173 163 157 162 181 187 169 135 128 121 124 124 136 149 145 159 166
21 22 12 13 15 20 26 31 33 31 61 114 138 136 139 135 136 111 93 132 170 128 134 140 141 151 151 149 153 162 177 190 171 167 154 145 117 108 105 112 118 119 139
31 37 32 31 30 30 27 25 25 43 55 64 86 119 141 158 168 169 114 110 132 160 146 150 155 159 163 160 154 153 146 145 155 160 158 150 150 151 158 163 170 174 177
46 48 42 34 32 32 35 42 48 59 69 81 91 107 122 125 153 198 198 152 143 145 134 136 144 147 147 146 149 155 165 175 173 171 179 174 170 160 171 173 180 189 160
43 45 35 34 36 37 38 43 47 53 60 69 81 101 112 112 145 154 152 147 149 153 156 152 143 140 148 152 149 144 141 154 162 164 167 165 163 158 157 156 155 157 165
54 58 61 59 63 59 51 54 51 53 58 59 60 58 73 87 101 116 126 141 144 139 138 142 151 161 161 162 163 167 173 175 184 183 178 174 167 158 154 148 146 153 155
64 69 73 77 73 76 71 53 50 52 54 62 47 45 54 63 78 91 101 111 118 125 129 128 127 134 142 149 151 149 149 153 157 160 155 148 143 143 139 144 147 150 148
72 82 84 83 81 83 82 77 58 55 58 54 52 47 45 53 59 68 70 81 93 98 100 104 113 120 123 127 130 133 133 136 135 137 141 137 132 129 128 128 130 131 136
72 80 85 88 87 87 91 90 83 70 63 55 45 47 48 47 47 54 54 56 68 77 81 86 95 102 102 115 121 122 122 123 116 116 123 122 114 112 113 115 120 125 133
63 74 75 75 75 76 80 87 87 91 87 72 58 52 46 48 49 48 53 52 55 59 68 69 75 79 92 99 104 108 111 129 127 119 109 111 116 115 116 118 126 125 133
58 62 63 64 67 67 69 70 72 72 73 74 71 62 57 53 51 50 50 48 50 51 58 59 56 62 59 64 74 82 99 114 123 123 108 104 111 117 115 118 118 108 105

GFSGL_con_3kmhel_120.txt.gz
Helicity
301 292 280 261 262 239 249 240 229 205 231 136 123 133 138 142 179 204 197 200 181 229 225 222 204 215 253 212 188 165 199 211 201 159 195 251 269 241 249 260 233 140 109
297 312 322 323 338 314 309 309 282 250 256 248 118 127 136 100 110 152 180 208 247 252 226 250 259 271 243 189 208 183 194 187 198 148 158 260 287 283 240 304 244 155 136
270 278 301 303 307 283 253 244 233 240 250 306 340 319 279 261 156 135 195 187 210 244 230 252 252 277 230 206 160 129 129 152 166 184 219 302 300 261 233 273 249 245 214
250 240 244 262 244 237 248 253 275 262 272 288 310 315 332 349 381 371 376 275 260 259 246 261 269 288 231 177 157 95 129 151 174 214 224 291 282 270 220 269 281 304 401
290 241 295 264 261 289 326 336 320 351 351 345 339 346 366 363 394 358 299 263 279 255 246 248 261 264 170 125 128 131 133 150 181 210 247 268 258 328 318 350 348 424 410
248 240 262 285 288 283 317 308 270 287 324 314 340 332 334 277 392 324 182 216 245 285 225 230 198 142 122 108 56 124 133 151 189 207 208 245 255 309 355 353 353 405 351
114 133 147 189 221 208 192 222 274 243 259 263 282 258 251 279 340 331 312 198 222 273 326 329 386 351 312 133 139 172 235 315 248 162 208 213 227 289 312 275 262 310 306
120 124 98 99 94 109 157 212 232 217 198 208 224 252 248 295 346 316 283 249 268 272 327 341 369 431 447 387 253 220 247 278 298 323 344 362 300 336 341 245 262 374 483
130 113 109 74 67 72 61 60 60 96 123 154 160 200 218 250 336 338 251 238 300 330 322 357 331 280 387 370 206 218 292 300 326 455 500 510 517 499 431 275 331 375 386
87 79 72 70 73 71 68 59 49 29 32 30 60 82 155 172 281 284 205 128 136 168 264 313 325 302 288 344 198 230 282 279 283 270 334 417 414 429 506 405 372 340 446
52 60 60 65 62 60 50 52 55 51 49 57 56 65 86 96 102 159 180 114 110 126 131 182 253 262 320 220 131 163 314 293 296 269 335 399 378 414 412 408 450 449 555
31 30 34 35 27 37 52 46 41 48 49 55 49 49 66 88 128 134 130 100 80 61 90 77 75 140 187 239 174 134 141 202 225 259 349 371 375 481 436 471 508 527 552
26 31 36 41 42 43 43 52 53 61 57 58 56 60 65 75 84 127 109 106 92 48 45 59 104 124 134 131 190 212 189 195 212 251 204 275 340 316 352 417 522 568 650
47 52 47 48 47 46 36 40 43 55 54 52 58 62 65 69 90 104 93 74 82 66 63 73 83 83 111 113 133 157 150 167 158 165 184 187 210 222 334 313 322 384 512
61 62 67 52 59 54 45 39 35 47 66 69 70 57 64 73 76 88 100 89 73 65 55 75 96 107 121 133 130 140 145 136 147 162 163 152 166 210 261 258 246 243 253
55 49 46 41 41 39 37 19 50 39 66 90 98 91 70 109 124 105 101 118 105 102 84 103 114 131 144 143 148 153 163 163 152 137 137 148 165 166 172 195 206 219 219
41 45 32 36 38 46 52 58 57 39 39 76 110 112 125 131 156 152 118 111 165 111 100 114 132 141 138 139 148 155 159 172 166 170 169 157 137 142 153 153 150 145 149
41 54 48 55 57 57 53 53 51 63 73 82 100 115 144 153 172 192 190 94 117 144 146 153 154 158 164 161 161 165 168 172 176 175 176 177 178 169 165 164 162 149 135
56 65 61 61 67 60 68 74 78 81 83 86 90 108 135 149 139 172 199 167 174 170 168 163 161 166 171 175 181 170 166 166 171 167 171 175 177 165 166 165 170 187 177
58 72 75 74 78 85 85 87 94 99 103 109 115 122 122 118 138 153 155 167 168 166 170 167 176 175 175 176 173 183 178 187 183 175 176 175 180 178 185 187 188 190 187
49 57 60 62 77 82 82 87 92 95 103 103 106 104 95 111 128 131 134 140 150 154 156 155 150 156 173 185 191 191 192 187 197 194 192 180 187 181 178 178 181 187 185
71 79 83 88 89 94 94 78 76 71 77 87 84 79 46 83 95 96 104 111 114 120 121 131 136 143 147 154 164 170 174 181 188 190 178 175 174 172 172 176 178 182 180
95 97 95 98 95 90 82 85 81 75 77 73 75 74 73 82 82 83 81 80 88 95 104 111 116 123 129 130 135 142 150 156 158 166 173 166 161 153 156 157 160 162 165
97 93 95 95 107 95 100 94 91 87 80 77 81 78 76 75 76 77 75 73 72 77 85 89 100 125 123 120 123 127 133 139 131 132 145 152 144 140 141 141 142 147 139
83 83 91 91 91 91 87 86 85 85 84 82 81 81 78 70 68 72 77 62 70 64 73 75 89 92 100 111 118 128 134 151 147 142 122 120 127 127 138 132 141 135 156
78 84 82 80 79 77 76 74 73 75 76 80 85 86 80 73 67 66 67 63 64 63 67 67 71 80 78 80 96 103 115 135 146 146 122 115 116 117 116 128 134 132 140

GFSGL_con_3kmhel_123.txt.gz
Helicity
180 315 352 284 446 593 504 427 110 57 151 239 230 83 101 157 198 218 205 221 241 262 173 85 145 159 197 200 215 214 197 190 181 100 135 151 181 173 163 202 184 224 242
260 214 262 326 330 341 230 303 250 237 248 289 318 329 276 225 198 211 175 175 169 179 200 239 161 208 207 212 234 233 219 217 189 168 121 180 185 189 204 250 217 251 242
411 291 273 355 308 265 237 264 301 283 310 341 408 397 372 381 350 362 353 265 174 201 194 270 213 219 279 292 272 272 275 279 252 188 148 194 191 180 194 225 251 224 251
186 208 220 212 249 268 221 274 308 299 321 334 337 350 367 362 336 295 297 299 254 268 192 220 218 271 272 272 286 281 274 268 210 188 197 174 225 216 200 231 257 287 368
213 273 242 211 197 244 247 231 255 243 252 283 292 301 305 277 283 291 261 233 253 261 279 216 214 236 259 296 311 285 249 370 196 188 164 189 229 248 231 218 201 330 402
270 273 272 254 213 255 272 266 284 284 284 276 321 313 352 308 404 334 267 236 257 288 295 298 335 375 354 235 171 181 254 210 195 191 162 185 191 217 217 223 260 402 409
173 156 208 250 230 213 199 205 229 247 257 237 271 241 241 286 372 337 244 158 164 214 263 233 302 277 321 326 327 282 333 363 348 242 122 170 183 199 231 228 305 345 360
114 135 107 92 84 72 81 125 164 178 197 187 172 157 168 235 330 321 232 186 176 200 185 231 294 307 301 288 292 278 358 365 359 254 281 309 323 266 236 217 242 359 530
73 76 77 57 54 65 84 87 70 69 75 83 109 142 151 189 291 306 198 185 187 186 211 248 327 291 331 251 215 254 320 405 395 485 435 440 476 465 428 293 335 392 456
26 26 28 28 54 69 59 51 36 36 39 32 38 53 90 90 146 159 127 94 139 139 152 179 257 215 291 296 219 110 228 259 305 326 273 314 333 355 439 435 421 369 460
35 41 28 29 36 36 37 35 43 31 36 50 48 31 55 68 96 148 142 63 61 50 77 113 107 188 196 215 218 189 147 139 158 144 182 172 172 274 313 410 437 415 463
30 28 30 22 6 11 19 35 60 75 66 77 78 67 61 67 112 135 130 102 84 37 48 37 41 91 115 163 117 150 188 129 131 197 171 142 205 247 192 213 252 347 486
41 50 49 60 48 47 43 43 49 62 63 69 74 77 83 78 96 150 137 120 94 51 38 47 60 81 89 85 149 158 137 123 144 181 202 183 193 200 246 265 251 251 343
56 61 64 66 73 70 61 57 49 58 60 57 68 70 76 82 104 112 111 109 115 83 76 57 61 62 77 70 101 119 104 111 113 113 116 116 132 192 243 237 209 208 268
65 69 72 59 63 61 44 41 39 36 38 52 57 51 56 70 91 106 101 108 107 100 79 64 87 105 115 123 115 130 143 136 122 115 111 128 138 136 154 182 189 182 190
68 69 67 67 70 66 65 45 21 7 12 37 53 68 66 91 117 133 120 106 159 137 78 106 120 126 124 125 132 134 138 159 161 148 136 133 134 144 154 168 178 184 195
47 53 40 45 47 51 55 60 66 48 -12 26 56 69 104 103 136 175 185 136 94 147 123 121 130 148 160 171 172 158 153 148 142 147 161 167 154 154 152 150 161 172 188
44 54 57 54 53 52 47 49 49 51 55 63 67 76 123 119 111 153 211 160 149 162 162 161 175 177 175 177 189 190 189 190 181 172 164 162 171 181 188 191 184 181 170
50 61 61 58 60 59 65 70 72 77 82 82 84 95 123 134 95 124 160 146 146 154 175 175 179 184 190 185 165 181 173 189 197 203 202 189 199 184 180 171 182 216 196
63 73 72 73 77 86 90 94 95 99 94 96 93 94 89 116 116 110 111 126 143 144 147 150 145 161 173 177 184 195 206 205 224 221 199 200 203 196 198 208 212 202 194
74 82 82 83 99 99 101 101 89 87 81 83 90 76 38 57 97 100 104 107 114 123 127 142 134 129 146 155 175 171 183 195 209 217 213 212 222 221 203 195 199 206 202
101 110 109 112 117 118 117 77 86 80 70 75 68 69 37 51 81 82 85 77 76 91 100 108 112 116 121 137 142 158 158 168 174 209 213 186 190 183 184 194 196 191 197
130 123 112 112 120 105 89 96 88 84 84 79 77 72 65 66 66 69 72 71 70 68 78 92 110 116 112 113 120 128 134 138 142 149 196 194 168 197 176 168 176 188 188
121 106 96 100 94 89 81 85 71 76 78 73 77 87 82 75 64 64 58 67 65 68 69 83 75 85 108 116 114 113 119 125 125 130 156 175 173 177 150 140 134 158 153
115 98 87 95 91 88 84 82 84 79 78 78 79 90 94 90 81 76 77 68 64 54 66 52 79 90 97 90 103 111 113 135 138 144 142 128 122 127 137 136 157 125 153
99 104 108 110 104 103 102 96 89 85 79 79 77 82 84 81 80 80 81 72 64 67 59 54 64 68 75 72 100 96 106 126 142 164 140 116 130 130 150 124 141 133 132

GFSGL_con_3kmhel_126.txt.gz
Helicity
341 512 538 489 401 295 251 633 337 185 431 283 219 262 240 213 156 108 148 185 182 205 199 194 194 284 321 211 129 144 169 173 156 124 158 217 317 274 235 234 191 169 170
321 445 482 591 533 529 549 597 621 602 547 94 160 225 232 228 241 250 301 293 232 237 194 169 202 254 163 173 220 252 199 174 131 192 165 227 278 280 229 213 200 177 166
359 228 442 552 572 472 427 384 456 498 585 176 209 176 169 225 254 266 250 325 342 384 263 186 146 128 148 172 172 172 184 161 186 231 246 247 274 273 208 200 186 217 198
329 321 188 356 503 495 404 430 425 423 346 272 223 186 253 291 335 407 348 311 310 302 297 288 306 260 207 171 184 210 226 280 319 269 284 264 348 275 217 176 189 210 269
330 352 335 255 261 343 469 412 351 351 350 351 359 315 246 254 329 359 269 240 250 255 248 280 299 298 339 376 320 273 257 265 295 295 259 276 280 371 253 208 181 204 301
143 154 133 160 196 222 224 206 265 284 321 269 247 257 298 311 349 306 222 191 210 246 273 306 281 307 355 359 385 291 272 264 278 223 238 253 248 257 236 246 147 307 278
68 105 108 87 40 73 100 164 215 233 209 229 244 222 257 301 361 254 216 153 158 178 196 227 219 238 275 241 258 184 181 291 275 292 273 257 205 246 225 236 179 280 239
59 80 92 66 79 72 65 81 89 82 114 161 210 239 244 309 343 364 248 190 149 144 185 211 216 211 267 236 168 131 113 143 235 259 313 306 318 271 262 239 191 224 389
39 24 3 14 17 14 46 47 43 55 63 58 73 92 94 135 207 207 135 119 159 167 170 181 197 195 260 289 123 122 179 226 199 174 207 178 261 337 352 276 248 375 364
17 -13 -30 -23 2 27 40 52 33 17 30 20 20 33 91 96 163 162 120 77 86 74 68 95 173 170 200 234 152 151 191 218 232 156 262 194 182 201 262 309 386 300 420
-26 -27 -12 -44 -39 -35 -16 17 41 33 37 59 55 49 56 86 108 156 153 77 68 54 55 70 65 112 118 117 122 105 103 110 160 156 199 253 256 227 273 277 363 216 308
-10 -4 -14 -14 -37 -30 -14 10 39 43 34 53 61 60 60 72 134 152 159 131 116 53 59 53 54 95 103 122 98 114 102 84 89 99 132 191 227 257 219 240 247 288 271
20 17 19 21 9 -20 -22 -26 -27 -4 10 34 43 50 59 71 90 155 144 146 122 74 61 55 76 81 84 78 138 145 115 110 74 81 96 104 118 146 174 186 249 217 276
21 31 39 27 27 17 -8 -19 -39 -46 -42 -36 -23 18 43 59 91 121 126 116 139 98 87 51 71 71 79 81 92 121 126 119 97 85 89 84 91 123 141 130 142 162 198
20 19 26 13 25 27 -14 -21 -45 -61 -44 -54 -59 -43 8 33 64 93 91 82 86 87 40 49 80 100 94 95 93 93 123 142 142 128 118 114 116 115 124 159 135 118 128
37 35 33 30 28 30 36 26 25 -26 -3 -4 -3 -18 -30 51 103 145 159 168 83 116 55 62 73 100 110 121 146 151 138 166 149 135 138 134 132 135 135 147 142 159 144
17 34 33 40 40 36 31 28 29 36 -14 -50 22 79 91 103 139 145 200 225 189 154 103 92 117 143 153 124 136 133 145 178 194 156 147 165 166 158 152 150 166 176 187
22 45 35 36 44 43 39 41 42 46 42 55 67 77 122 136 138 126 153 180 186 161 178 124 116 139 156 154 142 180 151 167 184 182 174 174 196 145 154 184 202 161 148
35 45 35 47 57 67 72 77 82 92 88 82 81 89 51 63 113 121 107 56 124 129 139 162 104 115 150 160 181 156 201 177 221 205 184 187 215 164 185 201 220 257 215
60 70 76 77 84 103 103 106 105 102 94 85 79 57 -0 -35 23 44 8 7 44 80 91 109 107 71 100 140 161 170 160 167 190 239 221 209 235 211 170 181 240 224 189
67 92 103 112 119 118 116 103 84 76 73 69 70 36 4 -24 13 14 16 -6 -0 27 40 69 71 56 61 95 117 140 155 132 143 196 247 248 236 205 198 208 203 193 220
90 114 123 121 122 118 100 80 85 83 77 81 69 67 54 37 34 22 25 19 11 8 12 29 48 77 77 88 78 88 110 126 142 154 201 282 193 188 186 159 200 207 199
102 115 104 94 100 94 92 88 90 89 89 82 77 75 75 79 63 46 44 36 49 23 25 25 32 40 50 98 83 60 80 92 101 132 153 230 213 188 186 128 146 149 165
94 104 100 97 101 102 103 108 99 90 89 83 80 78 78 81 79 73 54 71 55 33 29 32 26 41 35 52 68 69 68 81 95 102 139 196 128 148 174 164 150 155 163
120 103 106 120 132 132 125 118 116 110 103 93 84 79 76 78 78 72 71 69 47 34 38 24 54 54 44 54 79 56 56 86 104 120 135 167 157 152 157 109 140 120 144
113 112 120 132 144 142 139 134 135 131 122 125 109 96 79 72 78 75 66 67 79 77 43 39 43 47 20 55 72 47 58 81 114 153 190 166 125 126 156 154 176 165 112

GFSGL_con_3kmhel_129.txt.gz
Helicity
213 400 323 269 401 455 373 326 329 99 99 106 469 687 733 562 588 462 344 223 162 153 140 138 139 146 163 213 311 198 213 211 171 78 146 141 164 215 243 257 242 212 173
257 425 441 413 502 535 507 414 380 556 576 109 260 337 391 602 496 344 266 267 293 373 249 158 144 196 189 185 218 163 168 194 215 109 172 191 124 156 214 255 279 268 247
289 432 465 482 534 561 630 472 593 599 668 703 80 238 305 163 456 344 256 199 175 215 229 279 349 400 345 283 216 154 145 152 196 182 123 174 203 214 246 255 276 281 242
203 144 388 448 306 289 434 569 531 329 603 719 725 269 170 210 232 240 211 198 187 233 281 280 311 318 305 277 222 201 179 183 214 223 210 203 268 235 269 212 282 273 222
188 260 218 267 322 255 275 373 372 453 412 379 393 537 476 329 276 223 183 208 188 218 294 315 260 302 286 253 134 148 171 162 166 160 206 217 288 353 283 283 229 243 242
66 124 164 215 265 288 238 207 285 323 348 301 411 399 399 413 361 332 294 270 231 236 289 286 261 264 330 288 198 174 191 187 179 177 149 152 193 405 261 240 202 224 232
78 82 84 85 116 135 219 247 172 133 108 159 139 177 211 213 281 243 189 127 153 201 248 264 262 273 316 261 181 146 150 162 163 173 219 148 289 315 299 233 244 211 190
55 78 82 41 51 69 69 89 110 89 94 100 153 182 215 292 331 305 256 193 202 201 205 232 223 256 304 273 220 191 219 206 220 145 186 216 140 209 252 212 202 202 228
24 13 22 34 37 34 59 59 57 30 31 46 63 88 107 145 190 183 126 88 94 99 104 125 139 177 261 247 174 155 184 221 209 178 133 149 182 251 192 246 184 187 214
-11 -38 -71 -41 -7 48 54 33 15 20 29 24 19 50 95 98 162 158 119 81 91 91 91 88 134 112 133 142 81 94 133 173 179 209 250 224 220 189 270 230 175 177 144
-18 10 -20 -38 -37 -23 4 47 58 52 51 53 43 53 85 114 126 164 164 98 90 71 76 93 89 123 123 131 106 76 73 43 69 82 95 142 187 223 237 296 253 206 154
14 3 17 -31 -36 -32 -16 -3 16 27 48 59 58 62 85 112 157 169 165 138 142 64 66 62 66 112 113 142 112 149 137 86 82 77 85 101 116 149 146 140 203 211 186
7 34 8 18 -19 -23 -44 -49 -45 -24 3 34 59 78 96 115 119 180 174 173 158 94 67 78 110 115 119 80 164 170 133 122 109 107 107 94 95 95 85 84 77 94 143
8 22 6 4 5 -12 -38 -39 -44 -47 -38 -35 -19 1 33 87 125 156 167 182 158 117 78 85 123 132 131 132 123 156 151 142 113 110 98 98 111 118 114 116 104 90 105
-4 12 24 15 6 8 -15 -29 -48 -79 -48 -44 -34 -4 26 58 94 128 136 147 108 107 96 90 117 139 139 157 156 165 173 185 182 165 149 155 134 121 124 120 117 105 110
-19 -12 -11 -8 -15 -7 -7 -9 -3 -35 6 39 37 -14 -42 51 106 171 230 253 256 227 123 117 131 133 146 159 169 186 189 204 204 178 166 158 150 140 137 125 115 133 132
-10 -16 -13 3 12 11 -3 3 8 40 32 -17 50 76 119 138 132 174 192 210 239 219 190 155 144 145 147 172 189 198 204 198 208 201 175 190 174 130 130 143 144 125 133
1 -3 11 36 61 48 50 64 77 83 79 93 73 88 105 101 81 132 141 78 104 160 149 151 123 120 127 148 185 205 203 203 221 217 218 215 212 168 142 193 188 127 113
34 23 20 37 47 48 62 74 78 94 104 91 67 81 44 49 80 84 79 -1 20 71 86 105 99 72 80 92 117 157 174 156 168 193 218 244 243 193 181 192 208 185 129
62 32 40 57 81 72 62 78 90 83 88 71 67 33 10 28 6 -20 -28 -36 -0 10 27 56 63 51 60 66 68 87 103 122 146 174 211 243 275 209 186 189 205 201 179
65 67 70 75 84 82 74 76 64 73 80 81 77 47 40 62 27 14 -6 -22 -18 -10 7 25 14 18 21 41 46 59 73 92 104 133 182 227 248 222 183 154 158 180 201
82 82 82 86 80 84 83 85 88 92 102 104 96 79 95 85 78 53 16 9 -7 -11 -19 -8 23 17 4 29 59 51 42 56 79 110 163 197 206 200 171 113 122 144 168
90 96 91 93 98 93 103 99 103 110 99 94 91 96 90 85 77 62 46 28 31 11 -20 -11 3 33 31 27 12 16 48 66 85 83 113 150 169 183 151 133 131 131 160
96 98 98 110 121 122 123 122 125 118 125 125 114 110 105 86 68 61 52 36 38 22 -8 -8 -1 13 15 35 37 31 35 41 55 83 110 113 140 136 106 96 111 118 134
105 126 131 135 148 137 149 147 138 143 165 180 159 152 137 113 88 69 60 46 47 41 17 8 23 16 14 30 42 43 38 70 66 95 120 131 100 117 125 102 112 113 119
146 171 183 195 214 195 187 192 187 166 165 160 127 112 130 175 143 120 82 66 55 38 31 36 15 2 30 44 31 31 39 63 82 111 103 97 94 109 124 131 148 128 110